Wetterdaten: Mittwoch, 18.11.2015
Datum Zeit Temp. Aussen Temp. o. S. +5cm Feuchte Auss BlattFeu 1 Luftdruck Regen Sonnenschein Regendauer Solar Windben Empfang
18.11.2015 00:00 15,3 C 15,6 C 13,3 C 77 % 0 lf 1003,9 hPa 0,0 l/m 0 min 0 min 0 W/m 56,5 km/h (7 Bft) 97,87 %
18.11.2015 00:02 15,2 C 15,6 C 13,3 C 77 % 0 lf 1003,8 hPa 0,0 l/m 0 min 0 min 0 W/m 60,7 km/h (7 Bft) 92,86 %
18.11.2015 00:05 15,2 C 15,0 C 13,3 C 77 % 0 lf 1003,7 hPa 0,0 l/m 0 min 0 min 0 W/m 52,3 km/h (7 Bft) 98,57 %
18.11.2015 00:06 15,2 C 15,0 C 13,3 C 77 % 0 lf 1003,7 hPa 0,0 l/m 0 min 0 min 0 W/m 33,5 km/h (5 Bft) 95,65 %
18.11.2015 00:08 15,2 C 15,0 C 13,3 C 77 % 0 lf 1003,8 hPa 0,0 l/m 0 min 0 min 0 W/m 46,0 km/h (6 Bft) 95,74 %
18.11.2015 00:10 15,2 C 15,0 C 13,3 C 77 % 0 lf 1003,8 hPa 0,0 l/m 0 min 0 min 0 W/m 50,2 km/h (7 Bft) 94,29 %
18.11.2015 00:12 15,2 C 15,0 C 13,3 C 77 % 0 lf 1003,6 hPa 0,0 l/m 0 min 0 min 0 W/m 43,9 km/h (6 Bft) 100,00 %
18.11.2015 00:14 15,1 C 15,0 C 13,3 C 77 % 0 lf 1003,8 hPa 0,0 l/m 0 min 0 min 0 W/m 66,9 km/h (8 Bft) 97,87 %
18.11.2015 00:16 15,1 C 15,0 C 13,3 C 77 % 0 lf 1004,0 hPa 0,0 l/m 0 min 0 min 0 W/m 52,3 km/h (7 Bft) 97,87 %
18.11.2015 00:18 15,1 C 15,0 C 12,8 C 77 % 0 lf 1004,2 hPa 0,0 l/m 0 min 0 min 0 W/m 66,9 km/h (8 Bft) 93,48 %
18.11.2015 00:20 15,1 C 15,0 C 13,3 C 77 % 0 lf 1004,2 hPa 0,0 l/m 0 min 0 min 0 W/m 56,5 km/h (7 Bft) 100,00 %
18.11.2015 00:22 15,0 C 15,0 C 13,3 C 77 % 0 lf 1004,1 hPa 0,0 l/m 0 min 0 min 0 W/m 56,5 km/h (7 Bft) 100,00 %
18.11.2015 00:24 15,0 C 15,0 C 13,3 C 76 % 0 lf 1003,9 hPa 0,0 l/m 0 min 0 min 0 W/m 54,4 km/h (7 Bft) 100,00 %
18.11.2015 00:26 15,0 C 15,0 C 13,3 C 76 % 0 lf 1003,9 hPa 0,0 l/m 0 min 0 min 0 W/m 39,7 km/h (6 Bft) 95,74 %
18.11.2015 00:28 15,0 C 15,0 C 12,8 C 77 % 0 lf 1004,2 hPa 0,0 l/m 0 min 0 min 0 W/m 50,2 km/h (7 Bft) 100,00 %
18.11.2015 00:30 14,9 C 15,0 C 13,3 C 77 % 0 lf 1004,2 hPa 0,0 l/m 0 min 0 min 0 W/m 60,7 km/h (7 Bft) 93,62 %
18.11.2015 00:32 14,9 C 15,0 C 13,3 C 76 % 0 lf 1004,4 hPa 0,0 l/m 0 min 0 min 0 W/m 75,3 km/h (9 Bft) 97,87 %
18.11.2015 00:34 15,0 C 15,0 C 13,3 C 76 % 0 lf 1004,5 hPa 0,0 l/m 0 min 0 min 0 W/m 64,9 km/h (8 Bft) 95,74 %
18.11.2015 00:36 15,0 C 15,0 C 13,3 C 76 % 0 lf 1004,3 hPa 0,0 l/m 0 min 0 min 0 W/m 54,4 km/h (7 Bft) 95,74 %
18.11.2015 00:38 15,0 C 15,0 C 13,3 C 76 % 0 lf 1004,6 hPa 0,0 l/m 0 min 0 min 0 W/m 58,6 km/h (7 Bft) 97,87 %
18.11.2015 00:40 15,1 C 15,0 C 13,3 C 76 % 0 lf 1004,6 hPa 0,0 l/m 0 min 0 min 0 W/m 60,7 km/h (7 Bft) 97,83 %
18.11.2015 00:42 15,1 C 15,0 C 13,3 C 76 % 0 lf 1004,6 hPa 0,0 l/m 0 min 0 min 0 W/m 48,1 km/h (6 Bft) 94,44 %
18.11.2015 00:44 15,1 C 15,0 C 13,3 C 76 % 0 lf 1004,6 hPa 0,0 l/m 0 min 0 min 0 W/m 50,2 km/h (7 Bft) 100,00 %
18.11.2015 00:46 15,0 C 15,0 C 13,3 C 76 % 0 lf 1004,6 hPa 0,0 l/m 0 min 0 min 0 W/m 62,8 km/h (8 Bft) 95,74 %
18.11.2015 00:48 15,0 C 15,0 C 13,3 C 76 % 0 lf 1004,5 hPa 0,0 l/m 0 min 0 min 0 W/m 54,4 km/h (7 Bft) 95,74 %
18.11.2015 00:50 15,0 C 15,0 C 13,3 C 76 % 0 lf 1004,5 hPa 0,0 l/m 0 min 0 min 0 W/m 56,5 km/h (7 Bft) 91,49 %
18.11.2015 00:52 15,0 C 15,0 C 13,3 C 76 % 0 lf 1004,5 hPa 0,0 l/m 0 min 0 min 0 W/m 50,2 km/h (7 Bft) 95,74 %
18.11.2015 00:54 14,9 C 15,0 C 13,3 C 76 % 0 lf 1004,6 hPa 0,0 l/m 0 min 0 min 0 W/m 41,8 km/h (6 Bft) 91,49 %
18.11.2015 00:56 14,9 C 15,0 C 13,3 C 76 % 0 lf 1004,6 hPa 0,0 l/m 0 min 0 min 0 W/m 50,2 km/h (7 Bft) 91,30 %
18.11.2015 00:58 14,9 C 15,0 C 13,3 C 76 % 0 lf 1004,5 hPa 0,0 l/m 0 min 0 min 0 W/m 48,1 km/h (6 Bft) 91,49 %
18.11.2015 01:00 14,9 C 15,0 C 13,3 C 76 % 0 lf 1004,5 hPa 0,0 l/m 0 min 0 min 0 W/m 66,9 km/h (8 Bft) 91,49 %
18.11.2015 01:02 14,9 C 15,0 C 13,3 C 75 % 0 lf 1004,5 hPa 0,0 l/m 0 min 0 min 0 W/m 58,6 km/h (7 Bft) 94,34 %
18.11.2015 01:04 14,9 C 15,0 C 13,3 C 75 % 0 lf 1004,6 hPa 0,0 l/m 0 min 0 min 0 W/m 79,5 km/h (9 Bft) 91,49 %
18.11.2015 01:06 14,9 C 15,0 C 13,3 C 75 % 0 lf 1004,6 hPa 0,0 l/m 0 min 0 min 0 W/m 50,2 km/h (7 Bft) 92,31 %
18.11.2015 01:08 14,9 C 15,0 C 13,3 C 75 % 0 lf 1004,6 hPa 0,0 l/m 0 min 0 min 0 W/m 54,4 km/h (7 Bft) 89,36 %
18.11.2015 01:10 14,9 C 15,0 C 13,3 C 74 % 1 lf 1004,6 hPa 0,0 l/m 0 min 2 min 0 W/m 71,1 km/h (8 Bft) 93,62 %
18.11.2015 01:12 14,9 C 15,0 C 13,3 C 74 % 0 lf 1004,6 hPa 0,0 l/m 0 min 2 min 0 W/m 79,5 km/h (9 Bft) 93,62 %
18.11.2015 01:14 14,9 C 15,0 C 13,3 C 74 % 0 lf 1004,8 hPa 0,0 l/m 0 min 0 min 0 W/m 75,3 km/h (9 Bft) 93,62 %
18.11.2015 01:16 14,9 C 15,0 C 13,3 C 74 % 0 lf 1004,8 hPa 0,0 l/m 0 min 0 min 0 W/m 58,6 km/h (7 Bft) 91,30 %
18.11.2015 01:18 14,9 C 15,0 C 13,3 C 74 % 1 lf 1004,9 hPa 0,0 l/m 0 min 0 min 0 W/m 66,9 km/h (8 Bft) 91,49 %
18.11.2015 01:20 14,9 C 15,0 C 13,3 C 74 % 0 lf 1004,7 hPa 0,0 l/m 0 min 0 min 0 W/m 52,3 km/h (7 Bft) 91,49 %
18.11.2015 01:22 14,9 C 15,0 C 13,3 C 74 % 0 lf 1004,8 hPa 0,0 l/m 0 min 0 min 0 W/m 50,2 km/h (7 Bft) 93,62 %
18.11.2015 01:24 14,9 C 15,0 C 12,8 C 74 % 0 lf 1004,8 hPa 0,0 l/m 0 min 0 min 0 W/m 56,5 km/h (7 Bft) 93,62 %
18.11.2015 01:26 14,9 C 15,0 C 13,3 C 74 % 0 lf 1004,7 hPa 0,0 l/m 0 min 0 min 0 W/m 58,6 km/h (7 Bft) 87,23 %
18.11.2015 01:28 14,9 C 15,0 C 13,3 C 74 % 0 lf 1004,7 hPa 0,0 l/m 0 min 0 min 0 W/m 66,9 km/h (8 Bft) 91,30 %
18.11.2015 01:30 14,9 C 15,0 C 13,3 C 74 % 0 lf 1004,7 hPa 0,0 l/m 0 min 0 min 0 W/m 46,0 km/h (6 Bft) 91,49 %
18.11.2015 01:32 14,8 C 15,0 C 13,3 C 74 % 0 lf 1004,8 hPa 0,0 l/m 0 min 0 min 0 W/m 46,0 km/h (6 Bft) 97,87 %
18.11.2015 01:34 14,8 C 15,0 C 12,8 C 74 % 0 lf 1004,8 hPa 0,0 l/m 0 min 0 min 0 W/m 50,2 km/h (7 Bft) 93,62 %
18.11.2015 01:36 14,8 C 15,0 C 12,8 C 74 % 1 lf 1004,8 hPa 0,0 l/m 0 min 0 min 0 W/m 56,5 km/h (7 Bft) 97,87 %
18.11.2015 01:38 14,8 C 15,0 C 12,8 C 74 % 0 lf 1004,8 hPa 0,0 l/m 0 min 2 min 0 W/m 46,0 km/h (6 Bft) 100,00 %
18.11.2015 01:40 14,8 C 15,0 C 12,8 C 75 % 0 lf 1004,9 hPa 0,0 l/m 0 min 2 min 0 W/m 41,8 km/h (6 Bft) 100,00 %
18.11.2015 01:42 14,8 C 15,0 C 12,8 C 75 % 0 lf 1005,0 hPa 0,0 l/m 0 min 2 min 0 W/m 46,0 km/h (6 Bft) 93,02 %
18.11.2015 01:44 14,8 C 14,4 C 12,8 C 75 % 1 lf 1005,0 hPa 0,0 l/m 0 min 0 min 0 W/m 58,6 km/h (7 Bft) 97,83 %
18.11.2015 01:46 14,7 C 14,4 C 12,8 C 75 % 0 lf 1005,0 hPa 0,0 l/m 0 min 0 min 0 W/m 69,0 km/h (8 Bft) 97,87 %
18.11.2015 01:48 14,7 C 15,0 C 12,8 C 74 % 0 lf 1005,1 hPa 0,0 l/m 0 min 0 min 0 W/m 69,0 km/h (8 Bft) 100,00 %
18.11.2015 01:50 14,7 C 15,0 C 12,8 C 74 % 0 lf 1005,2 hPa 0,0 l/m 0 min 0 min 0 W/m 62,8 km/h (8 Bft) 100,00 %
18.11.2015 01:52 14,7 C 15,0 C 12,8 C 74 % 0 lf 1005,2 hPa 0,0 l/m 0 min 0 min 0 W/m 43,9 km/h (6 Bft) 97,87 %
18.11.2015 01:54 14,7 C 15,0 C 12,8 C 74 % 0 lf 1005,2 hPa 0,0 l/m 0 min 0 min 0 W/m 48,1 km/h (6 Bft) 97,87 %
18.11.2015 01:56 14,7 C 15,0 C 12,8 C 74 % 0 lf 1005,4 hPa 0,0 l/m 0 min 0 min 0 W/m 58,6 km/h (7 Bft) 93,48 %
18.11.2015 01:58 14,7 C 15,0 C 12,8 C 74 % 0 lf 1005,5 hPa 0,0 l/m 0 min 0 min 0 W/m 58,6 km/h (7 Bft) 95,74 %
18.11.2015 02:00 14,7 C 15,0 C 12,8 C 74 % 0 lf 1005,4 hPa 0,0 l/m 0 min 0 min 0 W/m 77,4 km/h (9 Bft) 97,87 %
18.11.2015 02:02 14,7 C 15,0 C 12,8 C 74 % 0 lf 1005,2 hPa 0,0 l/m 0 min 0 min 0 W/m 77,4 km/h (9 Bft) 97,92 %
18.11.2015 02:04 14,7 C 15,0 C 12,8 C 73 % 0 lf 1005,5 hPa 0,0 l/m 0 min 0 min 0 W/m 54,4 km/h (7 Bft) 97,87 %
18.11.2015 02:06 14,7 C 15,0 C 12,8 C 74 % 0 lf 1005,3 hPa 0,0 l/m 0 min 0 min 0 W/m 64,9 km/h (8 Bft) 97,96 %
18.11.2015 02:08 14,8 C 15,0 C 12,8 C 73 % 0 lf 1005,5 hPa 0,0 l/m 0 min 0 min 0 W/m 58,6 km/h (7 Bft) 100,00 %
18.11.2015 02:10 14,8 C 15,0 C 12,8 C 73 % 0 lf 1005,4 hPa 0,0 l/m 0 min 0 min 0 W/m 75,3 km/h (9 Bft) 100,00 %
18.11.2015 02:12 14,7 C 15,0 C 12,8 C 73 % 0 lf 1005,5 hPa 0,0 l/m 0 min 0 min 0 W/m 58,6 km/h (7 Bft) 97,87 %
18.11.2015 02:14 14,7 C 15,0 C 12,8 C 74 % 0 lf 1005,6 hPa 0,0 l/m 0 min 0 min 0 W/m 69,0 km/h (8 Bft) 100,00 %
18.11.2015 02:16 14,7 C 15,0 C 12,8 C 74 % 0 lf 1005,4 hPa 0,0 l/m 0 min 0 min 0 W/m 54,4 km/h (7 Bft) 95,74 %
18.11.2015 02:18 14,7 C 15,0 C 12,8 C 74 % 0 lf 1005,4 hPa 0,0 l/m 0 min 0 min 0 W/m 64,9 km/h (8 Bft) 100,00 %
18.11.2015 02:20 14,7 C 15,0 C 12,8 C 74 % 0 lf 1005,6 hPa 0,0 l/m 0 min 0 min 0 W/m 62,8 km/h (8 Bft) 95,74 %
18.11.2015 02:22 14,7 C 15,0 C 12,8 C 73 % 0 lf 1005,6 hPa 0,0 l/m 0 min 0 min 0 W/m 64,9 km/h (8 Bft) 97,87 %
18.11.2015 02:24 14,7 C 15,0 C 12,8 C 73 % 0 lf 1005,6 hPa 0,0 l/m 0 min 0 min 0 W/m 62,8 km/h (8 Bft) 97,87 %
18.11.2015 02:26 14,7 C 14,4 C 12,8 C 74 % 0 lf 1005,7 hPa 0,0 l/m 0 min 0 min 0 W/m 43,9 km/h (6 Bft) 97,87 %
18.11.2015 02:28 14,7 C 14,4 C 12,8 C 74 % 1 lf 1005,7 hPa 0,0 l/m 0 min 0 min 0 W/m 64,9 km/h (8 Bft) 97,87 %
18.11.2015 02:30 14,7 C 14,4 C 12,8 C 74 % 0 lf 1005,8 hPa 0,0 l/m 0 min 0 min 0 W/m 56,5 km/h (7 Bft) 97,83 %
18.11.2015 02:32 14,7 C 14,4 C 12,8 C 74 % 0 lf 1005,9 hPa 0,0 l/m 0 min 0 min 0 W/m 60,7 km/h (7 Bft) 91,49 %
18.11.2015 02:34 14,6 C 14,4 C 12,8 C 74 % 0 lf 1005,8 hPa 0,0 l/m 0 min 0 min 0 W/m 64,9 km/h (8 Bft) 97,87 %
18.11.2015 02:36 14,6 C 14,4 C 12,8 C 73 % 0 lf 1005,9 hPa 0,0 l/m 0 min 0 min 0 W/m 52,3 km/h (7 Bft) 97,92 %
18.11.2015 02:38 14,6 C 14,4 C 12,8 C 74 % 0 lf 1005,9 hPa 0,0 l/m 0 min 0 min 0 W/m 54,4 km/h (7 Bft) 97,83 %
18.11.2015 02:40 14,6 C 14,4 C 12,8 C 74 % 0 lf 1005,9 hPa 0,0 l/m 0 min 0 min 0 W/m 75,3 km/h (9 Bft) 97,87 %
18.11.2015 02:42 14,6 C 14,4 C 12,8 C 73 % 0 lf 1006,0 hPa 0,0 l/m 0 min 0 min 0 W/m 64,9 km/h (8 Bft) 97,87 %
18.11.2015 02:44 14,6 C 14,4 C 12,8 C 74 % 0 lf 1006,0 hPa 0,0 l/m 0 min 0 min 0 W/m 50,2 km/h (7 Bft) 95,74 %
18.11.2015 02:46 14,6 C 14,4 C 12,8 C 74 % 2 lf 1006,0 hPa 0,0 l/m 0 min 2 min 0 W/m 54,4 km/h (7 Bft) 95,74 %
18.11.2015 02:48 14,5 C 14,4 C 12,8 C 74 % 0 lf 1006,0 hPa 0,0 l/m 0 min 0 min 0 W/m 50,2 km/h (7 Bft) 95,74 %
18.11.2015 02:50 14,5 C 14,4 C 12,8 C 73 % 0 lf 1006,3 hPa 0,0 l/m 0 min 0 min 0 W/m 46,0 km/h (6 Bft) 95,65 %
18.11.2015 02:52 14,5 C 14,4 C 12,8 C 73 % 0 lf 1006,2 hPa 0,0 l/m 0 min 0 min 0 W/m 69,0 km/h (8 Bft) 95,74 %
18.11.2015 02:54 14,5 C 14,4 C 12,8 C 73 % 1 lf 1006,5 hPa 0,0 l/m 0 min 0 min 0 W/m 50,2 km/h (7 Bft) 95,74 %
18.11.2015 02:56 14,4 C 14,4 C 12,8 C 73 % 0 lf 1006,4 hPa 0,0 l/m 0 min 0 min 0 W/m 56,5 km/h (7 Bft) 93,62 %
18.11.2015 02:58 14,5 C 14,4 C 12,8 C 73 % 0 lf 1006,4 hPa 0,0 l/m 0 min 0 min 0 W/m 52,3 km/h (7 Bft) 95,74 %
18.11.2015 03:00 14,4 C 14,4 C 12,8 C 73 % 0 lf 1006,5 hPa 0,0 l/m 0 min 2 min 0 W/m 69,0 km/h (8 Bft) 95,65 %
18.11.2015 03:02 14,4 C 14,4 C 12,8 C 73 % 1 lf 1006,6 hPa 0,0 l/m 0 min 0 min 0 W/m 52,3 km/h (7 Bft) 95,74 %
18.11.2015 03:04 14,4 C 14,4 C 12,8 C 73 % 0 lf 1006,6 hPa 0,0 l/m 0 min 0 min 0 W/m 64,9 km/h (8 Bft) 95,74 %
18.11.2015 03:06 14,4 C 14,4 C 12,8 C 73 % 0 lf 1006,6 hPa 0,0 l/m 0 min 0 min 0 W/m 37,7 km/h (5 Bft) 95,12 %
18.11.2015 03:08 14,4 C 14,4 C 12,8 C 73 % 0 lf 1006,5 hPa 0,0 l/m 0 min 0 min 0 W/m 73,2 km/h (8 Bft) 95,74 %
18.11.2015 03:10 14,4 C 14,4 C 12,8 C 73 % 0 lf 1006,7 hPa 0,0 l/m 0 min 0 min 0 W/m 50,2 km/h (7 Bft) 95,74 %
18.11.2015 03:12 14,4 C 14,4 C 12,8 C 73 % 0 lf 1006,6 hPa 0,0 l/m 0 min 0 min 0 W/m 43,9 km/h (6 Bft) 97,87 %
18.11.2015 03:14 14,4 C 14,4 C 12,8 C 73 % 0 lf 1006,7 hPa 0,0 l/m 0 min 0 min 0 W/m 54,4 km/h (7 Bft) 97,87 %
18.11.2015 03:16 14,4 C 14,4 C 12,8 C 73 % 0 lf 1006,7 hPa 0,0 l/m 0 min 0 min 0 W/m 39,7 km/h (6 Bft) 100,00 %
18.11.2015 03:18 14,4 C 14,4 C 12,8 C 73 % 0 lf 1006,8 hPa 0,0 l/m 0 min 0 min 0 W/m 39,7 km/h (6 Bft) 97,83 %
18.11.2015 03:20 14,3 C 14,4 C 12,8 C 74 % 0 lf 1006,8 hPa 0,0 l/m 0 min 0 min 0 W/m 58,6 km/h (7 Bft) 96,08 %
18.11.2015 03:22 14,3 C 14,4 C 12,8 C 73 % 0 lf 1006,9 hPa 0,0 l/m 0 min 0 min 0 W/m 48,1 km/h (6 Bft) 97,83 %
18.11.2015 03:24 14,3 C 14,4 C 12,8 C 73 % 0 lf 1007,0 hPa 0,0 l/m 0 min 0 min 0 W/m 56,5 km/h (7 Bft) 97,87 %
18.11.2015 03:26 14,3 C 14,4 C 12,8 C 73 % 0 lf 1007,0 hPa 0,0 l/m 0 min 0 min 0 W/m 54,4 km/h (7 Bft) 100,00 %
18.11.2015 03:28 14,3 C 14,4 C 12,8 C 73 % 0 lf 1007,1 hPa 0,0 l/m 0 min 0 min 0 W/m 50,2 km/h (7 Bft) 100,00 %
18.11.2015 03:30 14,3 C 14,4 C 12,8 C 73 % 0 lf 1007,1 hPa 0,0 l/m 0 min 0 min 0 W/m 46,0 km/h (6 Bft) 97,87 %
18.11.2015 03:32 14,3 C 14,4 C 12,8 C 73 % 0 lf 1007,1 hPa 0,0 l/m 0 min 0 min 0 W/m 46,0 km/h (6 Bft) 97,87 %
18.11.2015 03:34 14,3 C 14,4 C 12,8 C 73 % 0 lf 1007,2 hPa 0,0 l/m 0 min 0 min 0 W/m 50,2 km/h (7 Bft) 100,00 %
18.11.2015 03:36 14,3 C 14,4 C 12,8 C 73 % 0 lf 1007,3 hPa 0,0 l/m 0 min 0 min 0 W/m 56,5 km/h (7 Bft) 97,87 %
18.11.2015 03:38 14,3 C 14,4 C 12,8 C 73 % 0 lf 1007,3 hPa 0,0 l/m 0 min 0 min 0 W/m 60,7 km/h (7 Bft) 93,62 %
18.11.2015 03:40 14,3 C 14,4 C 12,8 C 73 % 1 lf 1007,5 hPa 0,0 l/m 0 min 0 min 0 W/m 56,5 km/h (7 Bft) 100,00 %
18.11.2015 03:42 14,3 C 14,4 C 12,8 C 73 % 0 lf 1007,5 hPa 0,0 l/m 0 min 0 min 0 W/m 50,2 km/h (7 Bft) 93,62 %
18.11.2015 03:44 14,3 C 14,4 C 12,8 C 73 % 0 lf 1007,5 hPa 0,0 l/m 0 min 0 min 0 W/m 48,1 km/h (6 Bft) 95,74 %
18.11.2015 03:46 14,3 C 14,4 C 12,8 C 73 % 0 lf 1007,5 hPa 0,0 l/m 0 min 0 min 0 W/m 56,5 km/h (7 Bft) 95,74 %
18.11.2015 03:48 14,2 C 14,4 C 12,8 C 73 % 0 lf 1007,8 hPa 0,0 l/m 0 min 2 min 0 W/m 46,0 km/h (6 Bft) 97,87 %
18.11.2015 03:50 14,2 C 14,4 C 12,8 C 73 % 0 lf 1007,5 hPa 0,0 l/m 0 min 0 min 0 W/m 56,5 km/h (7 Bft) 95,74 %
18.11.2015 03:52 14,2 C 14,4 C 12,8 C 73 % 2 lf 1007,6 hPa 0,0 l/m 0 min 0 min 0 W/m 41,8 km/h (6 Bft) 97,83 %
18.11.2015 03:54 14,2 C 14,4 C 12,8 C 74 % 0 lf 1007,9 hPa 0,0 l/m 0 min 0 min 0 W/m 50,2 km/h (7 Bft) 95,74 %
18.11.2015 03:56 14,2 C 14,4 C 12,8 C 73 % 0 lf 1007,8 hPa 0,0 l/m 0 min 2 min 0 W/m 41,8 km/h (6 Bft) 97,87 %
18.11.2015 03:58 14,2 C 14,4 C 12,8 C 74 % 0 lf 1007,8 hPa 0,0 l/m 0 min 0 min 0 W/m 64,9 km/h (8 Bft) 93,62 %
18.11.2015 04:00 14,2 C 14,4 C 12,8 C 74 % 0 lf 1007,8 hPa 0,0 l/m 0 min 0 min 0 W/m 48,1 km/h (6 Bft) 93,62 %
18.11.2015 04:05 14,2 C 13,9 C 12,8 C 74 % 0 lf 1008,2 hPa 0,0 l/m 0 min 0 min 0 W/m 43,9 km/h (6 Bft) 93,44 %
18.11.2015 04:06 14,2 C 13,9 C 12,8 C 74 % 0 lf 1008,2 hPa 0,0 l/m 0 min 0 min 0 W/m 31,4 km/h (5 Bft) 91,67 %
18.11.2015 04:08 14,2 C 13,9 C 12,8 C 75 % 0 lf 1008,2 hPa 0,0 l/m 0 min 0 min 0 W/m 41,8 km/h (6 Bft) 97,87 %
18.11.2015 04:10 14,2 C 13,9 C 12,2 C 75 % 0 lf 1008,1 hPa 0,0 l/m 0 min 0 min 0 W/m 37,7 km/h (5 Bft) 95,74 %
18.11.2015 04:12 14,2 C 13,9 C 12,2 C 75 % 1 lf 1008,1 hPa 0,0 l/m 0 min 0 min 0 W/m 66,9 km/h (8 Bft) 97,83 %
18.11.2015 04:14 14,2 C 13,9 C 12,2 C 75 % 0 lf 1008,3 hPa 0,0 l/m 0 min 0 min 0 W/m 39,7 km/h (6 Bft) 95,74 %
18.11.2015 04:16 14,1 C 13,9 C 12,2 C 75 % 0 lf 1008,2 hPa 0,0 l/m 0 min 0 min 0 W/m 35,6 km/h (5 Bft) 91,49 %
18.11.2015 04:18 14,1 C 13,9 C 12,2 C 75 % 0 lf 1008,3 hPa 0,0 l/m 0 min 0 min 0 W/m 41,8 km/h (6 Bft) 89,36 %
18.11.2015 04:20 14,1 C 13,9 C 12,2 C 75 % 1 lf 1008,5 hPa 0,0 l/m 0 min 0 min 0 W/m 37,7 km/h (5 Bft) 95,74 %
18.11.2015 04:22 14,1 C 13,9 C 12,2 C 75 % 1 lf 1008,5 hPa 0,0 l/m 0 min 0 min 0 W/m 37,7 km/h (5 Bft) 95,74 %
18.11.2015 04:24 14,1 C 13,9 C 12,2 C 75 % 1 lf 1008,6 hPa 0,0 l/m 0 min 0 min 0 W/m 46,0 km/h (6 Bft) 95,65 %
18.11.2015 04:26 14,1 C 14,4 C 12,2 C 75 % 0 lf 1008,7 hPa 0,0 l/m 0 min 0 min 0 W/m 58,6 km/h (7 Bft) 95,74 %
18.11.2015 04:28 14,1 C 13,9 C 12,2 C 75 % 0 lf 1008,7 hPa 0,0 l/m 0 min 0 min 0 W/m 35,6 km/h (5 Bft) 95,74 %
18.11.2015 04:30 14,1 C 13,9 C 12,2 C 75 % 0 lf 1008,7 hPa 0,0 l/m 0 min 0 min 0 W/m 48,1 km/h (6 Bft) 97,87 %
18.11.2015 04:32 14,1 C 13,9 C 12,2 C 75 % 1 lf 1008,7 hPa 0,0 l/m 0 min 0 min 0 W/m 39,7 km/h (6 Bft) 95,74 %
18.11.2015 04:34 14,1 C 13,9 C 12,2 C 75 % 0 lf 1008,9 hPa 0,0 l/m 0 min 0 min 0 W/m 31,4 km/h (5 Bft) 95,65 %
18.11.2015 04:36 14,1 C 13,9 C 12,2 C 75 % 0 lf 1008,8 hPa 0,0 l/m 0 min 0 min 0 W/m 48,1 km/h (6 Bft) 91,49 %
18.11.2015 04:38 14,1 C 13,9 C 12,2 C 75 % 0 lf 1008,9 hPa 0,0 l/m 0 min 0 min 0 W/m 54,4 km/h (7 Bft) 93,62 %
18.11.2015 04:40 14,1 C 13,9 C 12,2 C 75 % 0 lf 1008,9 hPa 0,0 l/m 0 min 0 min 0 W/m 50,2 km/h (7 Bft) 93,62 %
18.11.2015 04:42 14,1 C 13,9 C 12,2 C 75 % 0 lf 1009,0 hPa 0,0 l/m 0 min 0 min 0 W/m 54,4 km/h (7 Bft) 93,62 %
18.11.2015 04:44 14,1 C 13,9 C 12,2 C 74 % 0 lf 1008,9 hPa 0,0 l/m 0 min 0 min 0 W/m 37,7 km/h (5 Bft) 95,74 %
18.11.2015 04:46 14,0 C 13,9 C 12,2 C 74 % 0 lf 1009,0 hPa 0,0 l/m 0 min 0 min 0 W/m 46,0 km/h (6 Bft) 97,83 %
18.11.2015 04:48 14,1 C 14,4 C 12,2 C 74 % 0 lf 1009,2 hPa 0,0 l/m 0 min 0 min 0 W/m 62,8 km/h (8 Bft) 95,74 %
18.11.2015 04:50 14,1 C 14,4 C 12,2 C 73 % 0 lf 1009,1 hPa 0,0 l/m 0 min 0 min 0 W/m 50,2 km/h (7 Bft) 95,74 %
18.11.2015 04:52 14,1 C 14,4 C 12,2 C 73 % 0 lf 1009,2 hPa 0,0 l/m 0 min 0 min 0 W/m 41,8 km/h (6 Bft) 95,74 %
18.11.2015 04:54 14,1 C 14,4 C 12,2 C 73 % 0 lf 1009,3 hPa 0,0 l/m 0 min 0 min 0 W/m 58,6 km/h (7 Bft) 93,62 %
18.11.2015 04:56 14,1 C 13,9 C 12,2 C 73 % 0 lf 1009,4 hPa 0,0 l/m 0 min 0 min 0 W/m 39,7 km/h (6 Bft) 95,74 %
18.11.2015 04:58 14,1 C 13,9 C 12,2 C 73 % 0 lf 1009,4 hPa 0,0 l/m 0 min 0 min 0 W/m 50,2 km/h (7 Bft) 91,30 %
18.11.2015 05:00 14,1 C 13,9 C 12,2 C 73 % 3 lf 1009,5 hPa 0,0 l/m 0 min 2 min 0 W/m 43,9 km/h (6 Bft) 93,62 %
18.11.2015 05:02 14,1 C 13,9 C 12,2 C 73 % 0 lf 1009,5 hPa 0,0 l/m 0 min 2 min 0 W/m 37,7 km/h (5 Bft) 91,49 %
18.11.2015 05:04 14,0 C 13,9 C 12,2 C 73 % 0 lf 1009,6 hPa 0,0 l/m 0 min 0 min 0 W/m 50,2 km/h (7 Bft) 95,74 %
18.11.2015 05:06 14,0 C 13,9 C 12,2 C 73 % 0 lf 1009,7 hPa 0,0 l/m 0 min 0 min 0 W/m 50,2 km/h (7 Bft) 95,24 %
18.11.2015 05:08 14,0 C 13,9 C 12,2 C 73 % 0 lf 1009,7 hPa 0,0 l/m 0 min 0 min 0 W/m 48,1 km/h (6 Bft) 93,62 %
18.11.2015 05:10 14,0 C 13,9 C 12,2 C 73 % 0 lf 1009,7 hPa 0,0 l/m 0 min 0 min 0 W/m 37,7 km/h (5 Bft) 95,74 %
18.11.2015 05:12 14,0 C 13,9 C 12,2 C 73 % 0 lf 1010,0 hPa 0,0 l/m 0 min 0 min 0 W/m 29,3 km/h (5 Bft) 95,74 %
18.11.2015 05:14 13,9 C 13,9 C 12,2 C 73 % 0 lf 1009,8 hPa 0,0 l/m 0 min 0 min 0 W/m 58,6 km/h (7 Bft) 93,62 %
18.11.2015 05:16 13,9 C 13,9 C 12,2 C 72 % 0 lf 1010,0 hPa 0,0 l/m 0 min 0 min 0 W/m 46,0 km/h (6 Bft) 97,83 %
18.11.2015 05:18 13,9 C 13,9 C 12,2 C 72 % 0 lf 1010,0 hPa 0,0 l/m 0 min 0 min 0 W/m 52,3 km/h (7 Bft) 93,62 %
18.11.2015 05:20 13,9 C 13,9 C 12,2 C 72 % 0 lf 1010,0 hPa 0,0 l/m 0 min 0 min 0 W/m 31,4 km/h (5 Bft) 93,62 %
18.11.2015 05:22 13,9 C 13,9 C 12,2 C 72 % 0 lf 1010,1 hPa 0,0 l/m 0 min 0 min 0 W/m 41,8 km/h (6 Bft) 97,87 %
18.11.2015 05:24 13,9 C 13,9 C 12,2 C 71 % 0 lf 1010,1 hPa 0,0 l/m 0 min 0 min 0 W/m 37,7 km/h (5 Bft) 97,87 %
18.11.2015 05:26 13,9 C 13,9 C 12,2 C 71 % 0 lf 1010,2 hPa 0,0 l/m 0 min 0 min 0 W/m 35,6 km/h (5 Bft) 97,83 %
18.11.2015 05:28 13,9 C 13,9 C 12,2 C 72 % 0 lf 1010,2 hPa 0,0 l/m 0 min 0 min 0 W/m 46,0 km/h (6 Bft) 93,62 %
18.11.2015 05:30 13,9 C 13,9 C 12,2 C 72 % 0 lf 1010,2 hPa 0,0 l/m 0 min 0 min 0 W/m 39,7 km/h (6 Bft) 95,74 %
18.11.2015 05:32 13,9 C 13,9 C 12,2 C 72 % 0 lf 1010,4 hPa 0,0 l/m 0 min 0 min 0 W/m 33,5 km/h (5 Bft) 95,83 %
18.11.2015 05:34 13,8 C 13,9 C 12,2 C 72 % 0 lf 1010,3 hPa 0,0 l/m 0 min 0 min 0 W/m 60,7 km/h (7 Bft) 95,74 %
18.11.2015 05:36 13,9 C 13,9 C 12,2 C 72 % 0 lf 1010,5 hPa 0,0 l/m 0 min 0 min 0 W/m 46,0 km/h (6 Bft) 91,84 %
18.11.2015 05:38 13,9 C 13,9 C 12,2 C 72 % 0 lf 1010,5 hPa 0,0 l/m 0 min 0 min 0 W/m 39,7 km/h (6 Bft) 95,74 %
18.11.2015 05:40 13,8 C 13,9 C 12,2 C 72 % 0 lf 1010,7 hPa 0,0 l/m 0 min 0 min 0 W/m 31,4 km/h (5 Bft) 95,74 %
18.11.2015 05:42 13,8 C 13,9 C 12,2 C 72 % 0 lf 1010,9 hPa 0,0 l/m 0 min 0 min 0 W/m 35,6 km/h (5 Bft) 95,74 %
18.11.2015 05:44 13,8 C 13,9 C 12,2 C 72 % 0 lf 1010,8 hPa 0,0 l/m 0 min 0 min 0 W/m 39,7 km/h (6 Bft) 93,62 %
18.11.2015 05:46 13,8 C 13,9 C 12,2 C 72 % 0 lf 1010,9 hPa 0,0 l/m 0 min 0 min 0 W/m 50,2 km/h (7 Bft) 95,74 %
18.11.2015 05:48 13,8 C 13,9 C 12,2 C 72 % 0 lf 1010,9 hPa 0,0 l/m 0 min 0 min 0 W/m 37,7 km/h (5 Bft) 93,48 %
18.11.2015 05:50 13,8 C 13,9 C 12,2 C 71 % 0 lf 1010,9 hPa 0,0 l/m 0 min 0 min 0 W/m 46,0 km/h (6 Bft) 97,87 %
18.11.2015 05:52 13,8 C 13,9 C 12,2 C 71 % 0 lf 1011,0 hPa 0,0 l/m 0 min 0 min 0 W/m 39,7 km/h (6 Bft) 84,09 %
18.11.2015 05:54 13,8 C 13,9 C 12,2 C 72 % 0 lf 1011,1 hPa 0,0 l/m 0 min 0 min 0 W/m 39,7 km/h (6 Bft) 97,87 %
18.11.2015 05:56 13,7 C 13,9 C 12,2 C 72 % 0 lf 1011,1 hPa 0,0 l/m 0 min 0 min 0 W/m 46,0 km/h (6 Bft) 97,87 %
18.11.2015 05:58 13,7 C 13,9 C 12,2 C 72 % 0 lf 1011,2 hPa 0,0 l/m 0 min 0 min 0 W/m 46,0 km/h (6 Bft) 97,87 %
18.11.2015 06:00 13,7 C 13,9 C 12,2 C 72 % 0 lf 1011,3 hPa 0,0 l/m 0 min 0 min 0 W/m 54,4 km/h (7 Bft) 97,87 %
18.11.2015 06:02 13,7 C 13,9 C 11,7 C 72 % 0 lf 1011,3 hPa 0,0 l/m 0 min 0 min 0 W/m 43,9 km/h (6 Bft) 91,49 %
18.11.2015 06:04 13,7 C 13,9 C 11,7 C 72 % 0 lf 1011,4 hPa 0,0 l/m 0 min 0 min 0 W/m 46,0 km/h (6 Bft) 97,87 %
18.11.2015 06:06 13,6 C 13,9 C 12,2 C 72 % 0 lf 1011,5 hPa 0,0 l/m 0 min 0 min 0 W/m 58,6 km/h (7 Bft) 98,00 %
18.11.2015 06:08 13,6 C 13,9 C 12,2 C 72 % 0 lf 1011,4 hPa 0,0 l/m 0 min 0 min 0 W/m 48,1 km/h (6 Bft) 93,48 %
18.11.2015 06:10 13,6 C 13,9 C 12,2 C 72 % 0 lf 1011,4 hPa 0,0 l/m 0 min 0 min 0 W/m 37,7 km/h (5 Bft) 97,87 %
18.11.2015 06:12 13,6 C 13,9 C 12,2 C 72 % 0 lf 1011,4 hPa 0,0 l/m 0 min 0 min 0 W/m 48,1 km/h (6 Bft) 97,87 %
18.11.2015 06:14 13,6 C 13,9 C 12,2 C 72 % 0 lf 1011,4 hPa 0,0 l/m 0 min 0 min 0 W/m 48,1 km/h (6 Bft) 100,00 %
18.11.2015 06:16 13,6 C 13,9 C 12,2 C 72 % 0 lf 1011,5 hPa 0,0 l/m 0 min 0 min 0 W/m 41,8 km/h (6 Bft) 97,87 %
18.11.2015 06:18 13,6 C 13,3 C 11,7 C 72 % 0 lf 1011,4 hPa 0,0 l/m 0 min 0 min 0 W/m 43,9 km/h (6 Bft) 100,00 %
18.11.2015 06:20 13,6 C 13,3 C 11,7 C 72 % 0 lf 1011,8 hPa 0,0 l/m 0 min 0 min 0 W/m 54,4 km/h (7 Bft) 100,00 %
18.11.2015 06:22 13,5 C 13,3 C 11,7 C 72 % 0 lf 1011,9 hPa 0,0 l/m 0 min 0 min 0 W/m 46,0 km/h (6 Bft) 100,00 %
18.11.2015 06:24 13,5 C 13,3 C 11,7 C 72 % 0 lf 1011,7 hPa 0,0 l/m 0 min 0 min 0 W/m 41,8 km/h (6 Bft) 97,87 %
18.11.2015 06:26 13,5 C 13,3 C 11,7 C 72 % 0 lf 1011,9 hPa 0,0 l/m 0 min 0 min 0 W/m 33,5 km/h (5 Bft) 97,87 %
18.11.2015 06:28 13,4 C 13,3 C 11,7 C 72 % 0 lf 1011,9 hPa 0,0 l/m 0 min 0 min 0 W/m 31,4 km/h (5 Bft) 97,87 %
18.11.2015 06:30 13,4 C 13,3 C 11,7 C 73 % 0 lf 1011,9 hPa 0,0 l/m 0 min 0 min 0 W/m 41,8 km/h (6 Bft) 97,87 %
18.11.2015 06:32 13,4 C 13,3 C 11,7 C 72 % 0 lf 1011,9 hPa 0,0 l/m 0 min 0 min 0 W/m 48,1 km/h (6 Bft) 95,65 %
18.11.2015 06:34 13,4 C 13,3 C 11,7 C 73 % 0 lf 1012,0 hPa 0,0 l/m 0 min 0 min 0 W/m 39,7 km/h (6 Bft) 97,87 %
18.11.2015 06:36 13,4 C 13,3 C 11,7 C 73 % 0 lf 1011,9 hPa 0,0 l/m 0 min 0 min 0 W/m 39,7 km/h (6 Bft) 95,74 %
18.11.2015 06:38 13,4 C 13,3 C 11,7 C 72 % 0 lf 1011,9 hPa 0,0 l/m 0 min 0 min 0 W/m 46,0 km/h (6 Bft) 93,62 %
18.11.2015 06:40 13,4 C 13,3 C 11,7 C 72 % 0 lf 1012,0 hPa 0,0 l/m 0 min 0 min 0 W/m 41,8 km/h (6 Bft) 95,74 %
18.11.2015 06:42 13,3 C 13,3 C 11,7 C 73 % 0 lf 1011,9 hPa 0,0 l/m 0 min 0 min 0 W/m 33,5 km/h (5 Bft) 97,87 %
18.11.2015 06:44 13,3 C 13,3 C 11,7 C 73 % 0 lf 1012,0 hPa 0,0 l/m 0 min 0 min 0 W/m 50,2 km/h (7 Bft) 93,48 %
18.11.2015 06:46 13,3 C 13,3 C 11,7 C 73 % 0 lf 1012,1 hPa 0,0 l/m 0 min 0 min 0 W/m 48,1 km/h (6 Bft) 95,74 %
18.11.2015 06:48 13,3 C 13,3 C 11,7 C 73 % 0 lf 1012,2 hPa 0,0 l/m 0 min 0 min 0 W/m 33,5 km/h (5 Bft) 95,74 %
18.11.2015 06:50 13,3 C 13,3 C 11,7 C 73 % 0 lf 1012,3 hPa 0,0 l/m 0 min 0 min 0 W/m 37,7 km/h (5 Bft) 93,62 %
18.11.2015 06:52 13,3 C 13,3 C 11,7 C 73 % 0 lf 1012,3 hPa 0,0 l/m 0 min 0 min 0 W/m 39,7 km/h (6 Bft) 93,62 %
18.11.2015 06:54 13,3 C 13,3 C 11,7 C 73 % 0 lf 1012,4 hPa 0,0 l/m 0 min 0 min 0 W/m 29,3 km/h (5 Bft) 93,62 %
18.11.2015 06:56 13,3 C 13,3 C 11,7 C 73 % 0 lf 1012,5 hPa 0,0 l/m 0 min 0 min 0 W/m 31,4 km/h (5 Bft) 93,48 %
18.11.2015 06:58 13,3 C 13,3 C 11,7 C 73 % 0 lf 1012,5 hPa 0,0 l/m 0 min 0 min 0 W/m 37,7 km/h (5 Bft) 95,74 %
18.11.2015 07:00 13,2 C 13,3 C 11,7 C 73 % 0 lf 1012,5 hPa 0,0 l/m 0 min 0 min 0 W/m 37,7 km/h (5 Bft) 91,49 %
18.11.2015 07:02 13,2 C 13,3 C 11,7 C 73 % 0 lf 1012,6 hPa 0,0 l/m 0 min 0 min 0 W/m 35,6 km/h (5 Bft) 95,74 %
18.11.2015 07:04 13,2 C 13,3 C 11,7 C 73 % 0 lf 1012,6 hPa 0,0 l/m 0 min 0 min 0 W/m 35,6 km/h (5 Bft) 95,74 %
18.11.2015 07:06 13,2 C 13,3 C 11,7 C 73 % 0 lf 1012,6 hPa 0,0 l/m 0 min 0 min 0 W/m 33,5 km/h (5 Bft) 97,62 %
18.11.2015 07:08 13,2 C 13,3 C 11,7 C 73 % 0 lf 1012,7 hPa 0,0 l/m 0 min 0 min 0 W/m 20,9 km/h (4 Bft) 93,62 %
18.11.2015 07:10 13,2 C 13,3 C 11,7 C 74 % 0 lf 1012,8 hPa 0,0 l/m 0 min 0 min 0 W/m 39,7 km/h (6 Bft) 95,74 %
18.11.2015 07:12 13,2 C 13,3 C 11,7 C 74 % 0 lf 1012,8 hPa 0,0 l/m 0 min 0 min 0 W/m 48,1 km/h (6 Bft) 95,65 %
18.11.2015 07:14 13,2 C 13,3 C 11,7 C 74 % 0 lf 1012,8 hPa 0,0 l/m 0 min 0 min 0 W/m 39,7 km/h (6 Bft) 97,87 %
18.11.2015 07:16 13,2 C 13,3 C 11,7 C 74 % 0 lf 1012,9 hPa 0,0 l/m 0 min 0 min 0 W/m 29,3 km/h (5 Bft) 95,74 %
18.11.2015 07:18 13,1 C 13,3 C 11,7 C 74 % 0 lf 1012,9 hPa 0,0 l/m 0 min 0 min 0 W/m 31,4 km/h (5 Bft) 95,74 %
18.11.2015 07:20 13,1 C 13,3 C 11,7 C 74 % 0 lf 1012,9 hPa 0,0 l/m 0 min 0 min 0 W/m 31,4 km/h (5 Bft) 95,74 %
18.11.2015 07:22 13,1 C 13,3 C 11,7 C 74 % 0 lf 1012,9 hPa 0,0 l/m 0 min 0 min 0 W/m 39,7 km/h (6 Bft) 97,87 %
18.11.2015 07:24 13,1 C 13,3 C 11,7 C 74 % 0 lf 1013,0 hPa 0,0 l/m 0 min 0 min 0 W/m 33,5 km/h (5 Bft) 97,83 %
18.11.2015 07:26 13,1 C 13,3 C 11,7 C 74 % 0 lf 1013,1 hPa 0,0 l/m 0 min 0 min 0 W/m 20,9 km/h (4 Bft) 100,00 %
18.11.2015 07:28 13,1 C 13,3 C 11,7 C 74 % 0 lf 1013,0 hPa 0,0 l/m 0 min 0 min 0 W/m 23,0 km/h (4 Bft) 100,00 %
18.11.2015 07:30 13,1 C 12,8 C 11,7 C 74 % 0 lf 1013,1 hPa 0,0 l/m 0 min 0 min 0 W/m 25,1 km/h (4 Bft) 95,74 %
18.11.2015 07:32 13,1 C 12,8 C 11,7 C 74 % 0 lf 1013,2 hPa 0,0 l/m 0 min 0 min 0 W/m 31,4 km/h (5 Bft) 100,00 %
18.11.2015 07:34 13,1 C 12,8 C 11,7 C 75 % 0 lf 1013,3 hPa 0,0 l/m 0 min 0 min 0 W/m 25,1 km/h (4 Bft) 100,00 %
18.11.2015 07:36 13,0 C 12,8 C 11,7 C 75 % 0 lf 1013,2 hPa 0,0 l/m 0 min 0 min 0 W/m 31,4 km/h (5 Bft) 100,00 %
18.11.2015 07:38 13,0 C 12,8 C 11,7 C 75 % 0 lf 1013,3 hPa 0,0 l/m 0 min 0 min 0 W/m 43,9 km/h (6 Bft) 100,00 %
18.11.2015 07:40 13,0 C 12,8 C 11,7 C 75 % 0 lf 1013,3 hPa 0,0 l/m 0 min 0 min 0 W/m 35,6 km/h (5 Bft) 95,74 %
18.11.2015 07:42 13,0 C 12,8 C 11,7 C 75 % 0 lf 1013,4 hPa 0,0 l/m 0 min 0 min 0 W/m 27,2 km/h (4 Bft) 100,00 %
18.11.2015 07:44 12,9 C 12,8 C 11,7 C 75 % 0 lf 1013,5 hPa 0,0 l/m 0 min 0 min 0 W/m 27,2 km/h (4 Bft) 100,00 %
18.11.2015 07:46 12,9 C 12,8 C 11,7 C 75 % 0 lf 1013,5 hPa 0,0 l/m 0 min 0 min 0 W/m 39,7 km/h (6 Bft) 100,00 %
18.11.2015 07:48 12,9 C 12,8 C 11,7 C 75 % 0 lf 1013,6 hPa 0,0 l/m 0 min 0 min 0 W/m 33,5 km/h (5 Bft) 97,87 %
18.11.2015 07:50 12,9 C 12,8 C 11,7 C 75 % 0 lf 1013,5 hPa 0,0 l/m 0 min 0 min 0 W/m 35,6 km/h (5 Bft) 97,87 %
18.11.2015 07:52 12,9 C 12,8 C 11,7 C 75 % 0 lf 1013,6 hPa 0,0 l/m 0 min 0 min 0 W/m 33,5 km/h (5 Bft) 100,00 %
18.11.2015 07:54 12,9 C 12,8 C 11,7 C 75 % 0 lf 1013,5 hPa 0,0 l/m 0 min 0 min 0 W/m 31,4 km/h (5 Bft) 100,00 %
18.11.2015 07:56 12,9 C 12,8 C 11,1 C 75 % 0 lf 1013,6 hPa 0,0 l/m 0 min 0 min 4 W/m 31,4 km/h (5 Bft) 97,83 %
18.11.2015 07:58 12,9 C 12,8 C 11,1 C 75 % 0 lf 1013,7 hPa 0,0 l/m 0 min 0 min 5 W/m 31,4 km/h (5 Bft) 97,87 %
18.11.2015 08:00 12,8 C 12,8 C 11,1 C 75 % 0 lf 1013,7 hPa 0,0 l/m 0 min 0 min 5 W/m 25,1 km/h (4 Bft) 97,87 %
18.11.2015 08:02 12,8 C 12,8 C 11,1 C 74 % 0 lf 1013,8 hPa 0,0 l/m 0 min 0 min 6 W/m 29,3 km/h (5 Bft) 95,83 %
18.11.2015 08:04 12,8 C 12,8 C 11,1 C 74 % 0 lf 1013,7 hPa 0,0 l/m 0 min 0 min 7 W/m 33,5 km/h (5 Bft) 95,74 %
18.11.2015 08:06 12,8 C 12,8 C 11,1 C 75 % 0 lf 1013,8 hPa 0,0 l/m 0 min 0 min 7 W/m 25,1 km/h (4 Bft) 93,48 %
18.11.2015 08:08 12,8 C 12,8 C 11,1 C 75 % 0 lf 1013,9 hPa 0,0 l/m 0 min 0 min 8 W/m 31,4 km/h (5 Bft) 97,87 %
18.11.2015 08:10 12,7 C 12,8 C 11,1 C 75 % 0 lf 1014,0 hPa 0,0 l/m 0 min 0 min 10 W/m 31,4 km/h (5 Bft) 93,62 %
18.11.2015 08:12 12,7 C 12,8 C 11,1 C 74 % 0 lf 1014,0 hPa 0,0 l/m 0 min 0 min 11 W/m 31,4 km/h (5 Bft) 95,74 %
18.11.2015 08:14 12,7 C 12,8 C 11,1 C 75 % 0 lf 1014,2 hPa 0,0 l/m 0 min 0 min 12 W/m 29,3 km/h (5 Bft) 95,74 %
18.11.2015 08:16 12,7 C 12,8 C 11,1 C 75 % 0 lf 1014,2 hPa 0,0 l/m 0 min 0 min 13 W/m 33,5 km/h (5 Bft) 91,30 %
18.11.2015 08:18 12,7 C 12,8 C 11,1 C 75 % 0 lf 1014,2 hPa 0,0 l/m 0 min 0 min 15 W/m 35,6 km/h (5 Bft) 95,74 %
18.11.2015 08:20 12,6 C 12,8 C 11,1 C 75 % 0 lf 1014,2 hPa 0,0 l/m 0 min 0 min 16 W/m 31,4 km/h (5 Bft) 93,62 %
18.11.2015 08:22 12,6 C 12,8 C 10,6 C 75 % 0 lf 1014,3 hPa 0,0 l/m 0 min 0 min 17 W/m 25,1 km/h (4 Bft) 95,74 %
18.11.2015 08:24 12,6 C 12,8 C 10,6 C 75 % 0 lf 1014,3 hPa 0,0 l/m 0 min 0 min 22 W/m 35,6 km/h (5 Bft) 93,62 %
18.11.2015 08:26 12,6 C 12,8 C 11,1 C 75 % 0 lf 1014,4 hPa 0,0 l/m 0 min 0 min 26 W/m 33,5 km/h (5 Bft) 93,62 %
18.11.2015 08:28 12,6 C 12,8 C 11,1 C 75 % 0 lf 1014,4 hPa 0,0 l/m 0 min 0 min 22 W/m 25,1 km/h (4 Bft) 93,48 %
18.11.2015 08:30 12,6 C 12,8 C 11,1 C 75 % 0 lf 1014,5 hPa 0,0 l/m 0 min 0 min 26 W/m 29,3 km/h (5 Bft) 95,74 %
18.11.2015 08:32 12,6 C 12,8 C 11,1 C 75 % 0 lf 1014,6 hPa 0,0 l/m 0 min 0 min 30 W/m 27,2 km/h (4 Bft) 97,87 %
18.11.2015 08:34 12,6 C 12,8 C 11,1 C 75 % 0 lf 1014,8 hPa 0,0 l/m 0 min 0 min 34 W/m 33,5 km/h (5 Bft) 93,62 %
18.11.2015 08:36 12,6 C 12,8 C 11,1 C 75 % 0 lf 1014,9 hPa 0,0 l/m 0 min 0 min 37 W/m 20,9 km/h (4 Bft) 95,24 %
18.11.2015 08:38 12,6 C 12,8 C 11,1 C 75 % 0 lf 1014,8 hPa 0,0 l/m 0 min 0 min 38 W/m 27,2 km/h (4 Bft) 89,36 %
18.11.2015 08:40 12,6 C 12,8 C 11,7 C 75 % 0 lf 1014,9 hPa 0,0 l/m 0 min 0 min 32 W/m 29,3 km/h (5 Bft) 95,74 %
18.11.2015 08:42 12,6 C 12,8 C 11,7 C 75 % 0 lf 1014,9 hPa 0,0 l/m 0 min 0 min 30 W/m 35,6 km/h (5 Bft) 91,49 %
18.11.2015 08:44 12,6 C 12,8 C 11,1 C 75 % 0 lf 1015,0 hPa 0,0 l/m 0 min 0 min 24 W/m 25,1 km/h (4 Bft) 93,62 %
18.11.2015 08:46 12,6 C 12,8 C 11,1 C 75 % 0 lf 1014,9 hPa 0,0 l/m 0 min 0 min 18 W/m 25,1 km/h (4 Bft) 95,65 %
18.11.2015 08:48 12,6 C 12,8 C 11,1 C 75 % 0 lf 1014,9 hPa 0,0 l/m 0 min 0 min 15 W/m 18,8 km/h (3 Bft) 93,62 %
18.11.2015 08:50 12,6 C 12,8 C 11,1 C 75 % 0 lf 1014,9 hPa 0,0 l/m 0 min 0 min 14 W/m 16,7 km/h (3 Bft) 91,49 %
18.11.2015 08:52 12,6 C 12,8 C 11,1 C 75 % 0 lf 1014,9 hPa 0,0 l/m 0 min 0 min 14 W/m 18,8 km/h (3 Bft) 89,36 %
18.11.2015 08:54 12,6 C 12,8 C 11,1 C 76 % 0 lf 1014,9 hPa 0,0 l/m 0 min 0 min 16 W/m 20,9 km/h (4 Bft) 93,62 %
18.11.2015 08:56 12,6 C 12,8 C 11,1 C 76 % 0 lf 1015,0 hPa 0,0 l/m 0 min 0 min 19 W/m 23,0 km/h (4 Bft) 89,13 %
18.11.2015 08:58 12,6 C 12,8 C 11,1 C 76 % 0 lf 1015,0 hPa 0,0 l/m 0 min 0 min 25 W/m 20,9 km/h (4 Bft) 89,36 %
18.11.2015 09:00 12,6 C 12,8 C 11,1 C 76 % 0 lf 1014,9 hPa 0,0 l/m 0 min 0 min 29 W/m 20,9 km/h (4 Bft) 91,49 %
18.11.2015 09:02 12,6 C 12,8 C 11,1 C 76 % 0 lf 1015,1 hPa 0,0 l/m 0 min 0 min 31 W/m 27,2 km/h (4 Bft) 95,83 %
18.11.2015 09:04 12,6 C 12,8 C 11,1 C 77 % 0 lf 1015,1 hPa 0,0 l/m 0 min 0 min 34 W/m 23,0 km/h (4 Bft) 95,74 %
18.11.2015 09:06 12,6 C 12,8 C 11,1 C 77 % 0 lf 1015,0 hPa 0,0 l/m 0 min 0 min 41 W/m 23,0 km/h (4 Bft) 94,00 %
18.11.2015 09:08 12,6 C 12,8 C 11,1 C 77 % 0 lf 1015,1 hPa 0,0 l/m 0 min 0 min 42 W/m 20,9 km/h (4 Bft) 93,48 %
18.11.2015 09:10 12,6 C 12,8 C 11,1 C 77 % 0 lf 1015,2 hPa 0,0 l/m 0 min 0 min 36 W/m 18,8 km/h (3 Bft) 95,74 %
18.11.2015 09:12 12,6 C 12,8 C 11,1 C 78 % 0 lf 1015,3 hPa 0,0 l/m 0 min 0 min 52 W/m 20,9 km/h (4 Bft) 95,74 %
18.11.2015 09:14 12,6 C 12,8 C 11,1 C 78 % 0 lf 1015,2 hPa 0,0 l/m 0 min 0 min 52 W/m 16,7 km/h (3 Bft) 95,74 %
18.11.2015 09:16 12,6 C 12,8 C 11,1 C 78 % 0 lf 1015,2 hPa 0,0 l/m 0 min 0 min 48 W/m 25,1 km/h (4 Bft) 93,62 %
18.11.2015 09:18 12,6 C 12,8 C 11,1 C 78 % 0 lf 1015,1 hPa 0,0 l/m 0 min 0 min 60 W/m 12,6 km/h (3 Bft) 97,87 %
18.11.2015 09:20 12,6 C 12,8 C 11,1 C 78 % 0 lf 1015,2 hPa 0,0 l/m 0 min 0 min 76 W/m 23,0 km/h (4 Bft) 95,65 %
18.11.2015 09:22 12,6 C 12,8 C 11,1 C 78 % 0 lf 1015,3 hPa 0,0 l/m 0 min 0 min 72 W/m 20,9 km/h (4 Bft) 97,87 %
18.11.2015 09:24 12,5 C 12,8 C 11,1 C 78 % 0 lf 1015,3 hPa 0,0 l/m 0 min 0 min 58 W/m 20,9 km/h (4 Bft) 95,74 %
18.11.2015 09:26 12,5 C 12,8 C 11,1 C 78 % 0 lf 1015,3 hPa 0,0 l/m 0 min 0 min 50 W/m 23,0 km/h (4 Bft) 97,87 %
18.11.2015 09:28 12,5 C 12,8 C 11,1 C 78 % 0 lf 1015,3 hPa 0,0 l/m 0 min 0 min 52 W/m 27,2 km/h (4 Bft) 97,87 %
18.11.2015 09:30 12,5 C 12,8 C 11,1 C 79 % 0 lf 1015,3 hPa 0,0 l/m 0 min 0 min 61 W/m 16,7 km/h (3 Bft) 93,48 %
18.11.2015 09:32 12,5 C 13,3 C 11,1 C 79 % 0 lf 1015,3 hPa 0,0 l/m 0 min 0 min 83 W/m 12,6 km/h (3 Bft) 97,87 %
18.11.2015 09:34 12,5 C 13,3 C 11,7 C 79 % 0 lf 1015,3 hPa 0,0 l/m 2 min 0 min 101 W/m 20,9 km/h (4 Bft) 95,74 %
18.11.2015 09:36 12,5 C 13,3 C 11,7 C 79 % 0 lf 1015,4 hPa 0,0 l/m 0 min 0 min 88 W/m 20,9 km/h (4 Bft) 97,92 %
18.11.2015 09:38 12,5 C 13,3 C 11,7 C 79 % 0 lf 1015,4 hPa 0,0 l/m 0 min 0 min 87 W/m 20,9 km/h (4 Bft) 95,74 %
18.11.2015 09:40 12,5 C 13,3 C 11,7 C 79 % 0 lf 1015,4 hPa 0,0 l/m 0 min 0 min 88 W/m 18,8 km/h (3 Bft) 93,48 %
18.11.2015 09:42 12,6 C 13,3 C 11,7 C 79 % 0 lf 1015,4 hPa 0,0 l/m 0 min 0 min 78 W/m 20,9 km/h (4 Bft) 97,87 %
18.11.2015 09:44 12,6 C 13,3 C 11,7 C 79 % 0 lf 1015,5 hPa 0,0 l/m 0 min 0 min 80 W/m 29,3 km/h (5 Bft) 95,74 %
18.11.2015 09:46 12,6 C 13,3 C 11,7 C 79 % 0 lf 1015,6 hPa 0,0 l/m 0 min 0 min 86 W/m 23,0 km/h (4 Bft) 95,74 %
18.11.2015 09:48 12,6 C 13,3 C 11,7 C 79 % 0 lf 1015,7 hPa 0,0 l/m 0 min 0 min 85 W/m 20,9 km/h (4 Bft) 97,87 %
18.11.2015 09:50 12,6 C 13,3 C 11,7 C 79 % 0 lf 1015,7 hPa 0,0 l/m 0 min 0 min 92 W/m 20,9 km/h (4 Bft) 97,83 %
18.11.2015 09:52 12,6 C 13,3 C 11,7 C 79 % 0 lf 1015,8 hPa 0,0 l/m 0 min 0 min 79 W/m 20,9 km/h (4 Bft) 95,74 %
18.11.2015 09:54 12,7 C 13,3 C 11,7 C 79 % 0 lf 1015,8 hPa 0,0 l/m 0 min 0 min 81 W/m 18,8 km/h (3 Bft) 93,62 %
18.11.2015 09:56 12,7 C 13,3 C 11,7 C 79 % 0 lf 1015,8 hPa 0,0 l/m 0 min 0 min 85 W/m 25,1 km/h (4 Bft) 95,74 %
18.11.2015 09:58 12,7 C 13,3 C 11,7 C 79 % 0 lf 1015,8 hPa 0,0 l/m 0 min 0 min 81 W/m 23,0 km/h (4 Bft) 97,87 %
18.11.2015 10:00 12,7 C 13,3 C 11,7 C 80 % 0 lf 1015,8 hPa 0,0 l/m 0 min 0 min 75 W/m 27,2 km/h (4 Bft) 97,87 %
18.11.2015 10:02 12,7 C 13,3 C 11,7 C 80 % 0 lf 1015,8 hPa 0,0 l/m 0 min 0 min 72 W/m 33,5 km/h (5 Bft) 95,65 %
18.11.2015 10:04 12,7 C 13,3 C 11,7 C 80 % 0 lf 1015,8 hPa 0,0 l/m 0 min 0 min 74 W/m 25,1 km/h (4 Bft) 95,74 %
18.11.2015 10:06 12,7 C 13,3 C 11,7 C 80 % 0 lf 1015,8 hPa 0,0 l/m 0 min 0 min 81 W/m 33,5 km/h (5 Bft) 95,24 %
18.11.2015 10:08 12,8 C 13,3 C 11,7 C 80 % 0 lf 1015,8 hPa 0,0 l/m 0 min 0 min 78 W/m 31,4 km/h (5 Bft) 97,83 %
18.11.2015 10:10 12,8 C 13,3 C 11,7 C 80 % 0 lf 1015,8 hPa 0,0 l/m 0 min 0 min 64 W/m 29,3 km/h (5 Bft) 97,87 %
18.11.2015 10:12 12,8 C 13,3 C 11,7 C 80 % 0 lf 1015,8 hPa 0,0 l/m 0 min 0 min 56 W/m 27,2 km/h (4 Bft) 97,87 %
18.11.2015 10:14 12,8 C 13,3 C 11,7 C 80 % 0 lf 1015,8 hPa 0,0 l/m 0 min 0 min 63 W/m 31,4 km/h (5 Bft) 97,87 %
18.11.2015 10:16 12,8 C 13,3 C 11,7 C 80 % 0 lf 1015,8 hPa 0,0 l/m 0 min 0 min 89 W/m 27,2 km/h (4 Bft) 97,87 %
18.11.2015 10:18 12,8 C 13,9 C 11,7 C 80 % 0 lf 1015,6 hPa 0,0 l/m 0 min 0 min 101 W/m 33,5 km/h (5 Bft) 95,65 %
18.11.2015 10:20 12,8 C 13,9 C 12,2 C 79 % 0 lf 1015,8 hPa 0,0 l/m 0 min 0 min 108 W/m 29,3 km/h (5 Bft) 98,04 %
18.11.2015 10:22 12,8 C 13,9 C 12,2 C 79 % 0 lf 1015,8 hPa 0,0 l/m 0 min 0 min 110 W/m 25,1 km/h (4 Bft) 97,87 %
18.11.2015 10:24 12,9 C 13,9 C 12,2 C 79 % 0 lf 1015,9 hPa 0,0 l/m 0 min 0 min 120 W/m 20,9 km/h (4 Bft) 100,00 %
18.11.2015 10:26 12,9 C 14,4 C 12,2 C 79 % 0 lf 1015,9 hPa 0,0 l/m 2 min 0 min 143 W/m 25,1 km/h (4 Bft) 100,00 %
18.11.2015 10:28 12,9 C 14,4 C 12,2 C 79 % 0 lf 1016,0 hPa 0,0 l/m 0 min 0 min 125 W/m 33,5 km/h (5 Bft) 97,87 %
18.11.2015 10:30 12,9 C 14,4 C 12,2 C 79 % 0 lf 1015,9 hPa 0,0 l/m 0 min 0 min 101 W/m 37,7 km/h (5 Bft) 100,00 %
18.11.2015 10:32 13,0 C 13,9 C 12,2 C 79 % 0 lf 1016,0 hPa 0,0 l/m 0 min 0 min 74 W/m 33,5 km/h (5 Bft) 97,87 %
18.11.2015 10:34 13,0 C 13,9 C 12,2 C 79 % 0 lf 1015,9 hPa 0,0 l/m 0 min 0 min 83 W/m 31,4 km/h (5 Bft) 95,74 %
18.11.2015 10:36 13,0 C 13,9 C 12,2 C 79 % 0 lf 1015,9 hPa 0,0 l/m 0 min 0 min 103 W/m 27,2 km/h (4 Bft) 97,96 %
18.11.2015 10:38 13,0 C 13,9 C 12,2 C 79 % 0 lf 1016,0 hPa 0,0 l/m 0 min 0 min 109 W/m 35,6 km/h (5 Bft) 100,00 %
18.11.2015 10:40 13,0 C 13,9 C 12,2 C 79 % 0 lf 1016,0 hPa 0,0 l/m 0 min 0 min 93 W/m 37,7 km/h (5 Bft) 100,00 %
18.11.2015 10:42 13,1 C 13,9 C 12,2 C 78 % 0 lf 1016,1 hPa 0,0 l/m 0 min 0 min 99 W/m 35,6 km/h (5 Bft) 95,74 %
18.11.2015 10:44 13,1 C 13,9 C 12,2 C 78 % 0 lf 1016,2 hPa 0,0 l/m 0 min 0 min 110 W/m 27,2 km/h (4 Bft) 97,87 %
18.11.2015 10:46 13,1 C 13,9 C 12,2 C 78 % 0 lf 1016,2 hPa 0,0 l/m 0 min 0 min 108 W/m 35,6 km/h (5 Bft) 97,87 %
18.11.2015 10:48 13,1 C 14,4 C 12,2 C 78 % 0 lf 1016,0 hPa 0,0 l/m 0 min 0 min 141 W/m 35,6 km/h (5 Bft) 97,87 %
18.11.2015 10:50 13,1 C 16,1 C 12,2 C 78 % 0 lf 1015,9 hPa 0,0 l/m 2 min 0 min 184 W/m 31,4 km/h (5 Bft) 100,00 %
18.11.2015 10:52 13,2 C 17,2 C 12,2 C 78 % 0 lf 1015,9 hPa 0,0 l/m 2 min 0 min 329 W/m 35,6 km/h (5 Bft) 93,62 %
18.11.2015 10:54 13,2 C 17,2 C 12,2 C 77 % 0 lf 1015,9 hPa 0,0 l/m 2 min 0 min 226 W/m 33,5 km/h (5 Bft) 97,87 %
18.11.2015 10:56 13,3 C 17,8 C 12,2 C 77 % 0 lf 1016,0 hPa 0,0 l/m 2 min 0 min 293 W/m 39,7 km/h (6 Bft) 95,74 %
18.11.2015 10:58 13,3 C 18,9 C 12,2 C 77 % 0 lf 1016,0 hPa 0,0 l/m 2 min 0 min 264 W/m 35,6 km/h (5 Bft) 97,87 %
18.11.2015 11:00 13,4 C 18,3 C 12,2 C 77 % 0 lf 1015,9 hPa 0,0 l/m 2 min 0 min 292 W/m 27,2 km/h (4 Bft) 95,65 %
18.11.2015 11:02 13,5 C 17,8 C 12,2 C 77 % 0 lf 1015,8 hPa 0,0 l/m 0 min 0 min 139 W/m 33,5 km/h (5 Bft) 97,87 %
18.11.2015 11:04 13,5 C 17,8 C 12,2 C 77 % 0 lf 1015,8 hPa 0,0 l/m 2 min 0 min 245 W/m 23,0 km/h (4 Bft) 95,74 %
18.11.2015 11:06 13,6 C 16,7 C 12,2 C 77 % 0 lf 1015,8 hPa 0,0 l/m 0 min 0 min 106 W/m 29,3 km/h (5 Bft) 97,14 %
18.11.2015 11:08 13,6 C 15,6 C 12,2 C 77 % 0 lf 1015,8 hPa 0,0 l/m 0 min 0 min 84 W/m 35,6 km/h (5 Bft) 97,87 %
18.11.2015 11:10 13,6 C 14,4 C 12,2 C 76 % 0 lf 1015,8 hPa 0,0 l/m 0 min 0 min 71 W/m 25,1 km/h (4 Bft) 93,62 %
18.11.2015 11:12 13,6 C 14,4 C 12,2 C 76 % 0 lf 1015,8 hPa 0,0 l/m 0 min 0 min 99 W/m 27,2 km/h (4 Bft) 97,87 %
18.11.2015 11:14 13,6 C 14,4 C 12,2 C 76 % 0 lf 1015,8 hPa 0,0 l/m 0 min 0 min 121 W/m 31,4 km/h (5 Bft) 95,74 %
18.11.2015 11:16 13,6 C 14,4 C 12,2 C 76 % 0 lf 1015,8 hPa 0,0 l/m 0 min 0 min 112 W/m 27,2 km/h (4 Bft) 91,30 %
18.11.2015 11:18 13,5 C 14,4 C 12,2 C 76 % 0 lf 1015,8 hPa 0,0 l/m 0 min 0 min 128 W/m 31,4 km/h (5 Bft) 93,62 %
18.11.2015 11:20 13,6 C 14,4 C 12,8 C 76 % 0 lf 1015,8 hPa 0,0 l/m 0 min 0 min 122 W/m 23,0 km/h (4 Bft) 97,87 %
18.11.2015 11:22 13,6 C 14,4 C 12,2 C 77 % 0 lf 1015,8 hPa 0,0 l/m 0 min 0 min 87 W/m 23,0 km/h (4 Bft) 97,87 %
18.11.2015 11:24 13,6 C 13,9 C 12,2 C 77 % 0 lf 1015,8 hPa 0,0 l/m 0 min 0 min 84 W/m 31,4 km/h (5 Bft) 95,74 %
18.11.2015 11:26 13,5 C 13,9 C 12,2 C 77 % 0 lf 1015,8 hPa 0,0 l/m 0 min 0 min 90 W/m 35,6 km/h (5 Bft) 95,74 %
18.11.2015 11:28 13,5 C 13,9 C 12,2 C 77 % 0 lf 1015,8 hPa 0,0 l/m 0 min 0 min 93 W/m 31,4 km/h (5 Bft) 93,62 %
18.11.2015 11:30 13,5 C 13,9 C 12,2 C 77 % 0 lf 1015,7 hPa 0,0 l/m 0 min 0 min 101 W/m 27,2 km/h (4 Bft) 100,00 %
18.11.2015 11:32 13,5 C 13,9 C 12,2 C 77 % 0 lf 1015,7 hPa 0,0 l/m 0 min 0 min 105 W/m 33,5 km/h (5 Bft) 95,74 %
18.11.2015 11:34 13,5 C 14,4 C 12,2 C 77 % 1 lf 1015,7 hPa 0,0 l/m 0 min 0 min 116 W/m 20,9 km/h (4 Bft) 95,74 %
18.11.2015 11:36 13,5 C 14,4 C 12,8 C 78 % 0 lf 1015,6 hPa 0,0 l/m 0 min 0 min 156 W/m 29,3 km/h (5 Bft) 94,55 %
18.11.2015 11:38 13,5 C 14,4 C 12,8 C 78 % 0 lf 1015,6 hPa 0,0 l/m 0 min 0 min 150 W/m 23,0 km/h (4 Bft) 91,49 %
18.11.2015 11:40 13,6 C 14,4 C 12,8 C 78 % 0 lf 1015,6 hPa 0,0 l/m 0 min 0 min 104 W/m 35,6 km/h (5 Bft) 95,65 %
18.11.2015 11:42 13,6 C 14,4 C 12,8 C 78 % 0 lf 1015,7 hPa 0,0 l/m 0 min 0 min 79 W/m 16,7 km/h (3 Bft) 95,74 %
18.11.2015 11:44 13,6 C 14,4 C 12,8 C 79 % 0 lf 1015,7 hPa 0,0 l/m 0 min 0 min 63 W/m 20,9 km/h (4 Bft) 93,62 %
18.11.2015 11:46 13,6 C 14,4 C 12,8 C 79 % 0 lf 1015,6 hPa 0,0 l/m 0 min 2 min 88 W/m 16,7 km/h (3 Bft) 95,74 %
18.11.2015 11:48 13,6 C 14,4 C 12,2 C 79 % 0 lf 1015,5 hPa 0,0 l/m 0 min 0 min 101 W/m 18,8 km/h (3 Bft) 95,74 %
18.11.2015 11:50 13,6 C 14,4 C 12,2 C 79 % 0 lf 1015,4 hPa 0,0 l/m 0 min 0 min 82 W/m 18,8 km/h (3 Bft) 93,62 %
18.11.2015 11:52 13,6 C 13,9 C 12,2 C 79 % 8 lf 1015,4 hPa 0,0 l/m 0 min 2 min 78 W/m 33,5 km/h (5 Bft) 95,65 %
18.11.2015 11:54 13,6 C 13,9 C 12,2 C 80 % 1 lf 1015,4 hPa 0,0 l/m 0 min 0 min 70 W/m 37,7 km/h (5 Bft) 91,49 %
18.11.2015 11:56 13,6 C 13,3 C 12,2 C 81 % 15 lf 1015,4 hPa 0,0 l/m 0 min 2 min 77 W/m 31,4 km/h (5 Bft) 93,62 %
18.11.2015 11:58 13,6 C 13,3 C 11,7 C 81 % 15 lf 1015,4 hPa 0,0 l/m 0 min 2 min 68 W/m 33,5 km/h (5 Bft) 93,62 %
18.11.2015 12:00 13,6 C 13,3 C 11,7 C 82 % 15 lf 1015,5 hPa 0,0 l/m 0 min 0 min 58 W/m 27,2 km/h (4 Bft) 93,62 %
18.11.2015 12:02 13,6 C 13,3 C 11,7 C 82 % 13 lf 1015,5 hPa 0,0 l/m 0 min 2 min 69 W/m 25,1 km/h (4 Bft) 93,75 %
18.11.2015 12:04 13,5 C 13,9 C 11,7 C 82 % 3 lf 1015,4 hPa 0,0 l/m 0 min 0 min 107 W/m 29,3 km/h (5 Bft) 91,30 %
18.11.2015 12:06 13,5 C 13,9 C 12,2 C 83 % 0 lf 1015,4 hPa 0,0 l/m 0 min 0 min 142 W/m 23,0 km/h (4 Bft) 90,00 %
18.11.2015 12:08 13,5 C 14,4 C 12,2 C 83 % 0 lf 1015,4 hPa 0,0 l/m 0 min 0 min 133 W/m 23,0 km/h (4 Bft) 91,49 %
18.11.2015 12:10 13,5 C 14,4 C 12,2 C 83 % 0 lf 1015,4 hPa 0,0 l/m 0 min 0 min 135 W/m 39,7 km/h (6 Bft) 93,62 %
18.11.2015 12:12 13,5 C 14,4 C 12,8 C 83 % 0 lf 1015,4 hPa 0,0 l/m 0 min 0 min 128 W/m 18,8 km/h (3 Bft) 95,65 %
18.11.2015 12:14 13,5 C 14,4 C 12,8 C 83 % 0 lf 1015,3 hPa 0,0 l/m 0 min 0 min 135 W/m 29,3 km/h (5 Bft) 93,62 %
18.11.2015 12:16 13,5 C 14,4 C 12,8 C 83 % 0 lf 1015,3 hPa 0,0 l/m 0 min 0 min 148 W/m 29,3 km/h (5 Bft) 89,36 %
18.11.2015 12:18 13,5 C 15,0 C 12,8 C 83 % 0 lf 1015,3 hPa 0,0 l/m 2 min 0 min 186 W/m 31,4 km/h (5 Bft) 95,74 %
18.11.2015 12:20 13,6 C 16,1 C 13,3 C 83 % 0 lf 1015,2 hPa 0,0 l/m 2 min 0 min 320 W/m 33,5 km/h (5 Bft) 93,62 %
18.11.2015 12:22 13,6 C 15,6 C 13,3 C 83 % 0 lf 1015,2 hPa 0,0 l/m 2 min 0 min 241 W/m 43,9 km/h (6 Bft) 95,65 %
18.11.2015 12:24 13,7 C 15,0 C 12,8 C 83 % 0 lf 1015,2 hPa 0,0 l/m 0 min 0 min 167 W/m 37,7 km/h (5 Bft) 89,36 %
18.11.2015 12:26 13,7 C 15,0 C 12,8 C 82 % 0 lf 1015,3 hPa 0,0 l/m 2 min 0 min 171 W/m 46,0 km/h (6 Bft) 95,74 %
18.11.2015 12:28 13,7 C 15,6 C 12,8 C 82 % 0 lf 1015,2 hPa 0,0 l/m 0 min 0 min 166 W/m 35,6 km/h (5 Bft) 93,62 %
18.11.2015 12:30 13,8 C 15,0 C 12,8 C 82 % 0 lf 1015,2 hPa 0,0 l/m 0 min 0 min 148 W/m 33,5 km/h (5 Bft) 97,87 %
18.11.2015 12:32 13,8 C 15,6 C 12,8 C 82 % 0 lf 1015,1 hPa 0,0 l/m 2 min 0 min 182 W/m 33,5 km/h (5 Bft) 95,74 %
18.11.2015 12:34 13,8 C 15,6 C 13,3 C 82 % 0 lf 1015,1 hPa 0,0 l/m 2 min 0 min 174 W/m 35,6 km/h (5 Bft) 93,48 %
18.11.2015 12:36 13,9 C 15,6 C 12,8 C 81 % 0 lf 1015,1 hPa 0,0 l/m 2 min 0 min 172 W/m 37,7 km/h (5 Bft) 97,87 %
18.11.2015 12:38 13,9 C 15,6 C 13,3 C 81 % 0 lf 1015,1 hPa 0,0 l/m 2 min 0 min 195 W/m 33,5 km/h (5 Bft) 95,74 %
18.11.2015 12:40 13,9 C 15,6 C 13,3 C 81 % 0 lf 1015,2 hPa 0,0 l/m 2 min 0 min 176 W/m 31,4 km/h (5 Bft) 95,74 %
18.11.2015 12:42 14,0 C 15,6 C 13,3 C 81 % 0 lf 1015,1 hPa 0,0 l/m 2 min 0 min 173 W/m 23,0 km/h (4 Bft) 95,74 %
18.11.2015 12:44 14,1 C 15,6 C 13,3 C 81 % 0 lf 1015,1 hPa 0,0 l/m 2 min 0 min 170 W/m 25,1 km/h (4 Bft) 93,62 %
18.11.2015 12:46 14,1 C 15,6 C 13,3 C 81 % 0 lf 1015,1 hPa 0,0 l/m 0 min 0 min 137 W/m 35,6 km/h (5 Bft) 95,74 %
18.11.2015 12:48 14,1 C 15,6 C 13,3 C 80 % 0 lf 1015,0 hPa 0,0 l/m 0 min 0 min 162 W/m 31,4 km/h (5 Bft) 95,65 %
18.11.2015 12:50 14,2 C 15,6 C 13,3 C 80 % 0 lf 1015,1 hPa 0,0 l/m 2 min 0 min 191 W/m 48,1 km/h (6 Bft) 93,62 %
18.11.2015 12:52 14,2 C 16,7 C 13,3 C 80 % 0 lf 1015,1 hPa 0,0 l/m 2 min 0 min 288 W/m 43,9 km/h (6 Bft) 97,87 %
18.11.2015 12:54 14,2 C 16,1 C 13,3 C 79 % 0 lf 1015,1 hPa 0,0 l/m 2 min 0 min 257 W/m 43,9 km/h (6 Bft) 95,74 %
18.11.2015 12:56 14,2 C 16,1 C 13,3 C 79 % 0 lf 1015,1 hPa 0,0 l/m 2 min 0 min 169 W/m 37,7 km/h (5 Bft) 95,74 %
18.11.2015 12:58 14,2 C 15,6 C 13,3 C 79 % 0 lf 1015,0 hPa 0,0 l/m 0 min 0 min 151 W/m 35,6 km/h (5 Bft) 97,83 %
18.11.2015 13:00 14,2 C 15,6 C 13,3 C 79 % 0 lf 1015,1 hPa 0,0 l/m 0 min 0 min 140 W/m 35,6 km/h (5 Bft) 97,87 %
18.11.2015 13:02 14,2 C 15,6 C 13,3 C 78 % 0 lf 1014,9 hPa 0,0 l/m 0 min 0 min 126 W/m 35,6 km/h (5 Bft) 95,74 %
18.11.2015 13:04 14,2 C 15,6 C 13,3 C 79 % 0 lf 1014,8 hPa 0,0 l/m 0 min 0 min 95 W/m 25,1 km/h (4 Bft) 95,74 %
18.11.2015 13:06 14,2 C 15,0 C 13,3 C 79 % 0 lf 1014,9 hPa 0,0 l/m 0 min 0 min 92 W/m 39,7 km/h (6 Bft) 95,74 %
18.11.2015 13:08 14,2 C 15,0 C 12,8 C 78 % 0 lf 1014,8 hPa 0,0 l/m 0 min 0 min 124 W/m 31,4 km/h (5 Bft) 93,62 %
18.11.2015 13:10 14,2 C 15,0 C 13,3 C 79 % 0 lf 1014,7 hPa 0,0 l/m 0 min 0 min 117 W/m 29,3 km/h (5 Bft) 95,65 %
18.11.2015 13:12 14,2 C 15,0 C 13,3 C 79 % 0 lf 1014,7 hPa 0,0 l/m 0 min 0 min 126 W/m 48,1 km/h (6 Bft) 95,74 %
18.11.2015 13:14 14,2 C 15,0 C 13,3 C 78 % 0 lf 1014,7 hPa 0,0 l/m 0 min 0 min 139 W/m 39,7 km/h (6 Bft) 97,87 %
18.11.2015 13:16 14,2 C 15,6 C 13,3 C 78 % 0 lf 1014,7 hPa 0,0 l/m 0 min 0 min 138 W/m 37,7 km/h (5 Bft) 97,87 %
18.11.2015 13:18 14,2 C 15,0 C 13,3 C 78 % 0 lf 1014,7 hPa 0,0 l/m 0 min 0 min 120 W/m 33,5 km/h (5 Bft) 95,74 %
18.11.2015 13:20 14,2 C 15,0 C 12,8 C 78 % 0 lf 1014,7 hPa 0,0 l/m 0 min 0 min 112 W/m 33,5 km/h (5 Bft) 95,74 %
18.11.2015 13:22 14,2 C 15,0 C 12,8 C 78 % 0 lf 1014,8 hPa 0,0 l/m 0 min 0 min 120 W/m 35,6 km/h (5 Bft) 100,00 %
18.11.2015 13:24 14,2 C 15,0 C 12,8 C 78 % 0 lf 1014,7 hPa 0,0 l/m 0 min 0 min 117 W/m 35,6 km/h (5 Bft) 97,87 %
18.11.2015 13:26 14,2 C 15,6 C 13,3 C 78 % 0 lf 1014,7 hPa 0,0 l/m 2 min 0 min 177 W/m 29,3 km/h (5 Bft) 97,87 %
18.11.2015 13:28 14,2 C 16,1 C 13,3 C 78 % 0 lf 1014,8 hPa 0,0 l/m 2 min 0 min 171 W/m 25,1 km/h (4 Bft) 97,87 %
18.11.2015 13:30 14,2 C 16,1 C 13,3 C 78 % 0 lf 1014,7 hPa 0,0 l/m 2 min 0 min 165 W/m 37,7 km/h (5 Bft) 100,00 %
18.11.2015 13:32 14,2 C 15,6 C 13,3 C 78 % 0 lf 1014,6 hPa 0,0 l/m 0 min 0 min 130 W/m 27,2 km/h (4 Bft) 100,00 %
18.11.2015 13:34 14,2 C 15,6 C 13,3 C 78 % 0 lf 1014,7 hPa 0,0 l/m 0 min 0 min 127 W/m 29,3 km/h (5 Bft) 95,65 %
18.11.2015 13:36 14,2 C 15,6 C 12,8 C 77 % 0 lf 1014,7 hPa 0,0 l/m 0 min 0 min 124 W/m 41,8 km/h (6 Bft) 100,00 %
18.11.2015 13:38 14,2 C 15,6 C 12,8 C 77 % 0 lf 1014,6 hPa 0,0 l/m 2 min 0 min 151 W/m 46,0 km/h (6 Bft) 100,00 %
18.11.2015 13:40 14,2 C 15,6 C 13,3 C 77 % 0 lf 1014,7 hPa 0,0 l/m 0 min 0 min 142 W/m 37,7 km/h (5 Bft) 100,00 %
18.11.2015 13:42 14,2 C 15,6 C 13,3 C 77 % 0 lf 1014,6 hPa 0,0 l/m 0 min 0 min 117 W/m 39,7 km/h (6 Bft) 97,87 %
18.11.2015 13:44 14,2 C 15,6 C 13,3 C 77 % 0 lf 1014,7 hPa 0,0 l/m 0 min 0 min 113 W/m 29,3 km/h (5 Bft) 97,83 %
18.11.2015 13:46 14,2 C 15,6 C 13,3 C 77 % 0 lf 1014,7 hPa 0,0 l/m 0 min 0 min 123 W/m 29,3 km/h (5 Bft) 97,87 %
18.11.2015 13:48 14,2 C 15,6 C 13,3 C 78 % 0 lf 1014,6 hPa 0,0 l/m 0 min 0 min 130 W/m 23,0 km/h (4 Bft) 97,87 %
18.11.2015 13:50 14,2 C 15,0 C 13,3 C 78 % 0 lf 1014,7 hPa 0,0 l/m 0 min 0 min 109 W/m 29,3 km/h (5 Bft) 100,00 %
18.11.2015 13:52 14,2 C 15,0 C 13,3 C 77 % 0 lf 1014,7 hPa 0,0 l/m 0 min 0 min 143 W/m 31,4 km/h (5 Bft) 100,00 %
18.11.2015 13:54 14,2 C 15,0 C 13,3 C 77 % 0 lf 1014,7 hPa 0,0 l/m 0 min 0 min 137 W/m 39,7 km/h (6 Bft) 97,87 %
18.11.2015 13:56 14,2 C 15,6 C 13,3 C 77 % 0 lf 1014,7 hPa 0,0 l/m 0 min 0 min 124 W/m 35,6 km/h (5 Bft) 100,00 %
18.11.2015 13:58 14,2 C 15,6 C 13,3 C 77 % 0 lf 1014,6 hPa 0,0 l/m 0 min 0 min 137 W/m 37,7 km/h (5 Bft) 100,00 %
18.11.2015 14:00 14,2 C 15,6 C 13,3 C 77 % 0 lf 1014,6 hPa 0,0 l/m 2 min 0 min 231 W/m 39,7 km/h (6 Bft) 100,00 %
18.11.2015 14:02 14,2 C 15,6 C 13,3 C 77 % 0 lf 1014,5 hPa 0,0 l/m 0 min 0 min 124 W/m 39,7 km/h (6 Bft) 95,74 %
18.11.2015 14:04 14,2 C 15,0 C 13,3 C 77 % 0 lf 1014,5 hPa 0,0 l/m 0 min 0 min 95 W/m 33,5 km/h (5 Bft) 97,87 %
18.11.2015 14:06 14,2 C 15,0 C 12,8 C 77 % 0 lf 1014,4 hPa 0,0 l/m 0 min 0 min 81 W/m 27,2 km/h (4 Bft) 91,49 %
18.11.2015 14:08 14,2 C 15,0 C 12,8 C 77 % 0 lf 1014,4 hPa 0,0 l/m 0 min 0 min 95 W/m 31,4 km/h (5 Bft) 100,00 %
18.11.2015 14:10 14,2 C 15,0 C 12,8 C 77 % 0 lf 1014,4 hPa 0,0 l/m 0 min 0 min 109 W/m 33,5 km/h (5 Bft) 97,87 %
18.11.2015 14:12 14,2 C 15,0 C 12,8 C 77 % 0 lf 1014,4 hPa 0,0 l/m 0 min 0 min 100 W/m 37,7 km/h (5 Bft) 100,00 %
18.11.2015 14:14 14,2 C 14,4 C 12,8 C 77 % 0 lf 1014,4 hPa 0,0 l/m 0 min 0 min 75 W/m 41,8 km/h (6 Bft) 97,87 %
18.11.2015 14:16 14,2 C 14,4 C 12,8 C 77 % 0 lf 1014,5 hPa 0,0 l/m 0 min 0 min 63 W/m 31,4 km/h (5 Bft) 97,87 %
18.11.2015 14:18 14,2 C 14,4 C 12,8 C 77 % 0 lf 1014,3 hPa 0,0 l/m 0 min 0 min 70 W/m 46,0 km/h (6 Bft) 97,87 %
18.11.2015 14:20 14,2 C 14,4 C 12,8 C 76 % 0 lf 1014,3 hPa 0,0 l/m 0 min 0 min 97 W/m 46,0 km/h (6 Bft) 100,00 %
18.11.2015 14:22 14,2 C 14,4 C 12,8 C 77 % 0 lf 1014,3 hPa 0,0 l/m 0 min 0 min 70 W/m 31,4 km/h (5 Bft) 95,74 %
18.11.2015 14:24 14,2 C 14,4 C 12,8 C 77 % 0 lf 1014,3 hPa 0,0 l/m 0 min 0 min 44 W/m 35,6 km/h (5 Bft) 97,87 %
18.11.2015 14:26 14,2 C 14,4 C 12,8 C 76 % 0 lf 1014,3 hPa 0,0 l/m 0 min 0 min 42 W/m 33,5 km/h (5 Bft) 97,87 %
18.11.2015 14:28 14,2 C 14,4 C 12,8 C 76 % 0 lf 1014,2 hPa 0,0 l/m 0 min 0 min 86 W/m 41,8 km/h (6 Bft) 95,74 %
18.11.2015 14:30 14,2 C 14,4 C 12,8 C 76 % 0 lf 1014,2 hPa 0,0 l/m 0 min 0 min 95 W/m 43,9 km/h (6 Bft) 97,87 %
18.11.2015 14:32 14,2 C 15,0 C 12,8 C 75 % 0 lf 1014,2 hPa 0,0 l/m 0 min 0 min 94 W/m 33,5 km/h (5 Bft) 97,83 %
18.11.2015 14:34 14,2 C 15,0 C 12,8 C 75 % 0 lf 1014,2 hPa 0,0 l/m 0 min 0 min 103 W/m 27,2 km/h (4 Bft) 97,87 %
18.11.2015 14:36 14,2 C 15,6 C 12,8 C 75 % 0 lf 1014,2 hPa 0,0 l/m 0 min 0 min 115 W/m 33,5 km/h (5 Bft) 97,87 %
18.11.2015 14:38 14,2 C 15,0 C 12,8 C 75 % 0 lf 1014,1 hPa 0,0 l/m 2 min 0 min 122 W/m 56,5 km/h (7 Bft) 94,29 %
18.11.2015 14:40 14,2 C 16,1 C 12,8 C 74 % 0 lf 1014,2 hPa 0,0 l/m 2 min 0 min 164 W/m 46,0 km/h (6 Bft) 95,74 %
18.11.2015 14:42 14,2 C 16,7 C 13,3 C 74 % 0 lf 1014,1 hPa 0,0 l/m 2 min 0 min 183 W/m 31,4 km/h (5 Bft) 97,87 %
18.11.2015 14:44 14,2 C 16,1 C 12,8 C 74 % 0 lf 1014,0 hPa 0,0 l/m 2 min 0 min 145 W/m 43,9 km/h (6 Bft) 97,87 %
18.11.2015 14:46 14,2 C 16,1 C 13,3 C 73 % 0 lf 1014,0 hPa 0,0 l/m 2 min 0 min 186 W/m 41,8 km/h (6 Bft) 95,74 %
18.11.2015 14:48 14,2 C 15,6 C 13,3 C 72 % 0 lf 1013,9 hPa 0,0 l/m 2 min 0 min 186 W/m 48,1 km/h (6 Bft) 95,65 %
18.11.2015 14:50 14,2 C 15,0 C 13,3 C 72 % 0 lf 1014,0 hPa 0,0 l/m 2 min 0 min 180 W/m 39,7 km/h (6 Bft) 91,49 %
18.11.2015 14:52 14,2 C 15,6 C 12,8 C 72 % 0 lf 1013,9 hPa 0,0 l/m 2 min 0 min 134 W/m 27,2 km/h (4 Bft) 90,91 %
18.11.2015 14:54 14,3 C 15,0 C 12,8 C 72 % 0 lf 1013,9 hPa 0,0 l/m 0 min 0 min 92 W/m 27,2 km/h (4 Bft) 91,49 %
18.11.2015 14:56 14,2 C 15,0 C 12,8 C 72 % 0 lf 1013,9 hPa 0,0 l/m 2 min 0 min 105 W/m 39,7 km/h (6 Bft) 88,00 %
18.11.2015 14:58 14,2 C 15,0 C 12,8 C 71 % 0 lf 1013,7 hPa 0,0 l/m 2 min 0 min 124 W/m 35,6 km/h (5 Bft) 93,48 %
18.11.2015 15:00 14,2 C 14,4 C 12,8 C 71 % 0 lf 1013,8 hPa 0,0 l/m 2 min 0 min 118 W/m 46,0 km/h (6 Bft) 89,58 %
18.11.2015 15:02 14,2 C 14,4 C 12,8 C 71 % 0 lf 1013,7 hPa 0,0 l/m 0 min 0 min 95 W/m 39,7 km/h (6 Bft) 89,36 %
18.11.2015 15:04 14,2 C 14,4 C 12,2 C 71 % 0 lf 1013,7 hPa 0,0 l/m 0 min 0 min 83 W/m 43,9 km/h (6 Bft) 88,57 %
18.11.2015 15:06 14,2 C 14,4 C 12,2 C 71 % 0 lf 1013,7 hPa 0,0 l/m 0 min 0 min 79 W/m 43,9 km/h (6 Bft) 89,36 %
18.11.2015 15:08 14,2 C 14,4 C 12,2 C 71 % 0 lf 1013,8 hPa 0,0 l/m 2 min 0 min 96 W/m 31,4 km/h (5 Bft) 90,91 %
18.11.2015 15:10 14,2 C 14,4 C 12,2 C 71 % 0 lf 1013,6 hPa 0,0 l/m 2 min 0 min 93 W/m 46,0 km/h (6 Bft) 89,13 %
18.11.2015 15:12 14,1 C 14,4 C 12,2 C 71 % 0 lf 1013,7 hPa 0,0 l/m 2 min 0 min 112 W/m 35,6 km/h (5 Bft) 91,49 %
18.11.2015 15:14 14,1 C 14,4 C 12,8 C 71 % 0 lf 1013,6 hPa 0,0 l/m 2 min 0 min 120 W/m 50,2 km/h (7 Bft) 89,36 %
18.11.2015 15:16 14,0 C 14,4 C 12,2 C 71 % 0 lf 1013,7 hPa 0,0 l/m 0 min 0 min 82 W/m 48,1 km/h (6 Bft) 87,23 %
18.11.2015 15:18 14,0 C 14,4 C 12,2 C 71 % 0 lf 1013,6 hPa 0,0 l/m 0 min 0 min 59 W/m 58,6 km/h (7 Bft) 91,49 %
18.11.2015 15:20 13,9 C 14,4 C 12,2 C 71 % 0 lf 1013,6 hPa 0,0 l/m 0 min 0 min 57 W/m 39,7 km/h (6 Bft) 93,62 %
18.11.2015 15:22 13,9 C 14,4 C 12,2 C 71 % 0 lf 1013,7 hPa 0,0 l/m 0 min 0 min 61 W/m 43,9 km/h (6 Bft) 93,48 %
18.11.2015 15:24 13,9 C 14,4 C 12,2 C 71 % 0 lf 1013,6 hPa 0,0 l/m 0 min 0 min 69 W/m 46,0 km/h (6 Bft) 93,62 %
18.11.2015 15:26 13,9 C 14,4 C 12,2 C 71 % 0 lf 1013,7 hPa 0,0 l/m 0 min 0 min 62 W/m 31,4 km/h (5 Bft) 95,74 %
18.11.2015 15:28 13,9 C 13,9 C 12,2 C 72 % 0 lf 1013,6 hPa 0,0 l/m 0 min 0 min 65 W/m 39,7 km/h (6 Bft) 95,74 %
18.11.2015 15:30 13,8 C 13,9 C 12,2 C 72 % 0 lf 1013,6 hPa 0,0 l/m 0 min 0 min 63 W/m 41,8 km/h (6 Bft) 93,62 %
18.11.2015 15:32 13,8 C 13,9 C 12,2 C 72 % 0 lf 1013,4 hPa 0,0 l/m 0 min 0 min 59 W/m 39,7 km/h (6 Bft) 95,74 %
18.11.2015 15:34 13,8 C 13,9 C 12,2 C 72 % 0 lf 1013,5 hPa 0,0 l/m 2 min 0 min 72 W/m 31,4 km/h (5 Bft) 95,65 %
18.11.2015 15:36 13,8 C 13,9 C 12,2 C 72 % 0 lf 1013,5 hPa 0,0 l/m 0 min 0 min 63 W/m 43,9 km/h (6 Bft) 95,74 %
18.11.2015 15:38 13,7 C 13,9 C 12,2 C 72 % 0 lf 1013,6 hPa 0,0 l/m 2 min 0 min 68 W/m 29,3 km/h (5 Bft) 96,00 %
18.11.2015 15:40 13,7 C 13,9 C 12,2 C 72 % 0 lf 1013,6 hPa 0,0 l/m 2 min 0 min 65 W/m 37,7 km/h (5 Bft) 97,87 %
18.11.2015 15:42 13,7 C 13,9 C 12,2 C 72 % 0 lf 1013,6 hPa 0,0 l/m 2 min 0 min 62 W/m 35,6 km/h (5 Bft) 93,62 %
18.11.2015 15:44 13,7 C 13,9 C 12,2 C 72 % 0 lf 1013,6 hPa 0,0 l/m 0 min 0 min 53 W/m 20,9 km/h (4 Bft) 95,74 %
18.11.2015 15:46 13,7 C 13,9 C 12,2 C 73 % 0 lf 1013,6 hPa 0,0 l/m 0 min 0 min 52 W/m 37,7 km/h (5 Bft) 93,62 %
18.11.2015 15:48 13,7 C 13,9 C 12,2 C 73 % 0 lf 1013,6 hPa 0,0 l/m 0 min 0 min 51 W/m 33,5 km/h (5 Bft) 95,74 %
18.11.2015 15:50 13,7 C 13,9 C 12,2 C 73 % 0 lf 1013,6 hPa 0,0 l/m 2 min 0 min 52 W/m 25,1 km/h (4 Bft) 91,49 %
18.11.2015 15:52 13,6 C 13,9 C 12,2 C 73 % 0 lf 1013,7 hPa 0,0 l/m 0 min 0 min 48 W/m 37,7 km/h (5 Bft) 97,83 %
18.11.2015 15:54 13,6 C 13,9 C 12,2 C 73 % 0 lf 1013,6 hPa 0,0 l/m 2 min 0 min 49 W/m 27,2 km/h (4 Bft) 91,49 %
18.11.2015 15:56 13,6 C 13,9 C 12,2 C 73 % 0 lf 1013,6 hPa 0,0 l/m 2 min 0 min 55 W/m 27,2 km/h (4 Bft) 100,00 %
18.11.2015 15:58 13,6 C 13,9 C 11,7 C 73 % 0 lf 1013,6 hPa 0,0 l/m 2 min 0 min 48 W/m 33,5 km/h (5 Bft) 97,83 %
18.11.2015 16:00 13,6 C 13,9 C 11,7 C 73 % 0 lf 1013,6 hPa 0,0 l/m 2 min 0 min 43 W/m 33,5 km/h (5 Bft) 96,36 %
18.11.2015 16:02 13,5 C 13,9 C 11,7 C 73 % 0 lf 1013,4 hPa 0,0 l/m 2 min 0 min 45 W/m 37,7 km/h (5 Bft) 100,00 %
18.11.2015 16:04 13,5 C 13,9 C 11,7 C 73 % 0 lf 1013,5 hPa 0,0 l/m 2 min 0 min 40 W/m 27,2 km/h (4 Bft) 100,00 %
18.11.2015 16:06 13,4 C 13,9 C 11,7 C 73 % 0 lf 1013,5 hPa 0,0 l/m 2 min 0 min 37 W/m 35,6 km/h (5 Bft) 97,87 %
18.11.2015 16:08 13,4 C 13,3 C 11,7 C 73 % 0 lf 1013,4 hPa 0,0 l/m 2 min 0 min 35 W/m 37,7 km/h (5 Bft) 97,14 %
18.11.2015 16:10 13,4 C 13,3 C 11,7 C 73 % 0 lf 1013,4 hPa 0,0 l/m 2 min 0 min 30 W/m 41,8 km/h (6 Bft) 97,87 %
18.11.2015 16:12 13,4 C 13,3 C 11,7 C 73 % 0 lf 1013,4 hPa 0,0 l/m 2 min 0 min 30 W/m 43,9 km/h (6 Bft) 97,87 %
18.11.2015 16:14 13,3 C 13,3 C 11,7 C 73 % 0 lf 1013,4 hPa 0,0 l/m 2 min 0 min 26 W/m 35,6 km/h (5 Bft) 100,00 %
18.11.2015 16:16 13,3 C 13,3 C 11,7 C 73 % 0 lf 1013,3 hPa 0,0 l/m 2 min 0 min 24 W/m 37,7 km/h (5 Bft) 100,00 %
18.11.2015 16:18 13,3 C 13,3 C 11,7 C 73 % 0 lf 1013,4 hPa 0,0 l/m 2 min 0 min 23 W/m 35,6 km/h (5 Bft) 97,87 %
18.11.2015 16:20 13,3 C 13,3 C 11,7 C 73 % 0 lf 1013,4 hPa 0,0 l/m 2 min 0 min 21 W/m 31,4 km/h (5 Bft) 97,87 %
18.11.2015 16:22 13,2 C 13,3 C 11,1 C 73 % 0 lf 1013,4 hPa 0,0 l/m 2 min 0 min 19 W/m 27,2 km/h (4 Bft) 97,83 %
18.11.2015 16:24 13,2 C 12,8 C 11,1 C 73 % 0 lf 1013,3 hPa 0,0 l/m 0 min 0 min 18 W/m 33,5 km/h (5 Bft) 98,18 %
18.11.2015 16:26 13,2 C 12,8 C 11,1 C 74 % 0 lf 1013,3 hPa 0,0 l/m 0 min 0 min 17 W/m 25,1 km/h (4 Bft) 100,00 %
18.11.2015 16:28 13,1 C 12,8 C 11,1 C 74 % 0 lf 1013,3 hPa 0,0 l/m 0 min 0 min 16 W/m 27,2 km/h (4 Bft) 98,00 %
18.11.2015 16:30 13,1 C 12,8 C 11,1 C 74 % 0 lf 1013,3 hPa 0,0 l/m 0 min 0 min 14 W/m 25,1 km/h (4 Bft) 97,87 %
18.11.2015 16:32 13,1 C 12,8 C 11,1 C 74 % 0 lf 1013,2 hPa 0,0 l/m 0 min 0 min 12 W/m 20,9 km/h (4 Bft) 100,00 %
18.11.2015 16:34 13,0 C 12,8 C 11,1 C 74 % 0 lf 1013,2 hPa 0,0 l/m 0 min 0 min 12 W/m 23,0 km/h (4 Bft) 100,00 %
18.11.2015 16:36 12,9 C 12,8 C 11,1 C 74 % 0 lf 1013,2 hPa 0,0 l/m 0 min 0 min 11 W/m 31,4 km/h (5 Bft) 100,00 %
18.11.2015 16:38 12,9 C 12,8 C 11,1 C 74 % 0 lf 1013,2 hPa 0,0 l/m 0 min 0 min 9 W/m 27,2 km/h (4 Bft) 93,62 %
18.11.2015 16:40 12,9 C 12,8 C 11,1 C 74 % 0 lf 1013,2 hPa 0,0 l/m 0 min 0 min 8 W/m 27,2 km/h (4 Bft) 100,00 %
18.11.2015 16:42 12,8 C 12,8 C 10,6 C 74 % 0 lf 1013,2 hPa 0,0 l/m 0 min 0 min 7 W/m 25,1 km/h (4 Bft) 100,00 %
18.11.2015 16:44 12,8 C 12,8 C 11,1 C 74 % 0 lf 1013,1 hPa 0,0 l/m 0 min 0 min 5 W/m 39,7 km/h (6 Bft) 100,00 %
18.11.2015 16:46 12,8 C 12,8 C 11,1 C 74 % 0 lf 1013,0 hPa 0,0 l/m 0 min 0 min 5 W/m 41,8 km/h (6 Bft) 95,74 %
18.11.2015 16:48 12,7 C 12,8 C 11,1 C 74 % 0 lf 1013,0 hPa 0,0 l/m 0 min 0 min 4 W/m 37,7 km/h (5 Bft) 93,62 %
18.11.2015 16:50 12,7 C 12,2 C 11,1 C 74 % 0 lf 1013,0 hPa 0,0 l/m 0 min 0 min 0 W/m 29,3 km/h (5 Bft) 97,87 %
18.11.2015 16:52 12,7 C 12,8 C 11,1 C 74 % 0 lf 1013,1 hPa 0,0 l/m 0 min 0 min 0 W/m 29,3 km/h (5 Bft) 95,74 %
18.11.2015 16:54 12,7 C 12,2 C 10,6 C 74 % 0 lf 1013,1 hPa 0,0 l/m 0 min 0 min 0 W/m 35,6 km/h (5 Bft) 97,87 %
18.11.2015 16:56 12,7 C 12,2 C 10,6 C 75 % 0 lf 1013,1 hPa 0,0 l/m 0 min 0 min 0 W/m 31,4 km/h (5 Bft) 94,44 %
18.11.2015 16:58 12,6 C 12,2 C 10,6 C 75 % 0 lf 1013,0 hPa 0,0 l/m 0 min 0 min 0 W/m 25,1 km/h (4 Bft) 96,00 %
18.11.2015 17:00 12,6 C 12,2 C 10,6 C 75 % 0 lf 1012,9 hPa 0,0 l/m 0 min 0 min 0 W/m 27,2 km/h (4 Bft) 95,83 %
18.11.2015 17:02 12,6 C 12,2 C 10,6 C 75 % 0 lf 1012,9 hPa 0,0 l/m 0 min 0 min 0 W/m 31,4 km/h (5 Bft) 95,74 %
18.11.2015 17:04 12,5 C 12,2 C 10,6 C 75 % 0 lf 1012,9 hPa 0,0 l/m 0 min 0 min 0 W/m 25,1 km/h (4 Bft) 97,83 %
18.11.2015 17:06 12,5 C 12,2 C 10,6 C 75 % 0 lf 1012,8 hPa 0,0 l/m 0 min 0 min 0 W/m 23,0 km/h (4 Bft) 95,74 %
18.11.2015 17:08 12,5 C 12,2 C 10,6 C 75 % 0 lf 1012,9 hPa 0,0 l/m 0 min 0 min 0 W/m 18,8 km/h (3 Bft) 95,74 %
18.11.2015 17:10 12,4 C 12,2 C 10,6 C 76 % 0 lf 1012,9 hPa 0,0 l/m 0 min 0 min 0 W/m 20,9 km/h (4 Bft) 97,14 %
18.11.2015 17:12 12,4 C 12,2 C 10,6 C 76 % 0 lf 1012,9 hPa 0,0 l/m 0 min 0 min 0 W/m 14,6 km/h (3 Bft) 97,87 %
18.11.2015 17:14 12,4 C 12,2 C 10,6 C 76 % 0 lf 1012,9 hPa 0,0 l/m 0 min 0 min 0 W/m 16,7 km/h (3 Bft) 95,74 %
18.11.2015 17:16 12,4 C 12,2 C 10,6 C 76 % 0 lf 1012,9 hPa 0,0 l/m 0 min 0 min 0 W/m 29,3 km/h (5 Bft) 100,00 %
18.11.2015 17:18 12,3 C 12,2 C 10,6 C 76 % 0 lf 1012,9 hPa 0,0 l/m 0 min 0 min 0 W/m 16,7 km/h (3 Bft) 95,74 %
18.11.2015 17:20 12,3 C 12,2 C 10,6 C 76 % 0 lf 1012,9 hPa 0,0 l/m 0 min 0 min 0 W/m 18,8 km/h (3 Bft) 97,83 %
18.11.2015 17:22 12,3 C 12,2 C 10,6 C 76 % 0 lf 1012,9 hPa 0,0 l/m 0 min 0 min 0 W/m 27,2 km/h (4 Bft) 97,87 %
18.11.2015 17:24 12,3 C 12,2 C 10,6 C 76 % 0 lf 1013,0 hPa 0,0 l/m 0 min 0 min 0 W/m 23,0 km/h (4 Bft) 96,36 %
18.11.2015 17:26 12,2 C 12,2 C 10,6 C 77 % 0 lf 1012,8 hPa 0,0 l/m 0 min 0 min 0 W/m 18,8 km/h (3 Bft) 95,74 %
18.11.2015 17:28 12,2 C 12,2 C 10,6 C 77 % 0 lf 1012,8 hPa 0,0 l/m 0 min 0 min 0 W/m 27,2 km/h (4 Bft) 95,74 %
18.11.2015 17:30 12,2 C 12,2 C 10,6 C 77 % 0 lf 1012,8 hPa 0,0 l/m 0 min 0 min 0 W/m 29,3 km/h (5 Bft) 97,87 %
18.11.2015 17:32 12,2 C 12,2 C 10,6 C 77 % 0 lf 1012,8 hPa 0,0 l/m 0 min 0 min 0 W/m 25,1 km/h (4 Bft) 97,83 %
18.11.2015 17:34 12,2 C 12,2 C 10,6 C 77 % 0 lf 1012,8 hPa 0,0 l/m 0 min 0 min 0 W/m 20,9 km/h (4 Bft) 94,00 %
18.11.2015 17:36 12,2 C 12,2 C 10,6 C 77 % 0 lf 1012,8 hPa 0,0 l/m 0 min 0 min 0 W/m 16,7 km/h (3 Bft) 93,62 %
18.11.2015 17:38 12,2 C 12,2 C 10,6 C 77 % 0 lf 1012,8 hPa 0,0 l/m 0 min 0 min 0 W/m 18,8 km/h (3 Bft) 95,74 %
18.11.2015 17:40 12,1 C 12,2 C 10,6 C 77 % 0 lf 1012,8 hPa 0,0 l/m 0 min 0 min 0 W/m 27,2 km/h (4 Bft) 93,62 %
18.11.2015 17:42 12,1 C 12,2 C 10,6 C 77 % 0 lf 1012,7 hPa 0,0 l/m 0 min 0 min 0 W/m 23,0 km/h (4 Bft) 93,62 %
18.11.2015 17:44 12,1 C 12,2 C 10,6 C 77 % 0 lf 1012,7 hPa 0,0 l/m 0 min 0 min 0 W/m 23,0 km/h (4 Bft) 95,74 %
18.11.2015 17:46 12,1 C 12,2 C 10,6 C 78 % 0 lf 1012,7 hPa 0,0 l/m 0 min 0 min 0 W/m 20,9 km/h (4 Bft) 89,36 %
18.11.2015 17:48 12,1 C 12,2 C 10,6 C 78 % 0 lf 1012,8 hPa 0,0 l/m 0 min 0 min 0 W/m 27,2 km/h (4 Bft) 93,62 %
18.11.2015 17:50 12,1 C 12,2 C 10,6 C 78 % 0 lf 1012,8 hPa 0,0 l/m 0 min 0 min 0 W/m 25,1 km/h (4 Bft) 95,65 %
18.11.2015 17:52 12,1 C 12,2 C 10,6 C 78 % 0 lf 1012,9 hPa 0,0 l/m 0 min 0 min 0 W/m 35,6 km/h (5 Bft) 93,62 %
18.11.2015 17:54 12,1 C 12,2 C 10,6 C 78 % 0 lf 1012,9 hPa 0,0 l/m 0 min 0 min 0 W/m 33,5 km/h (5 Bft) 95,74 %
18.11.2015 17:56 12,1 C 12,2 C 10,6 C 78 % 0 lf 1012,9 hPa 0,0 l/m 0 min 0 min 0 W/m 25,1 km/h (4 Bft) 93,62 %
18.11.2015 17:58 12,1 C 12,2 C 10,6 C 78 % 0 lf 1012,9 hPa 0,0 l/m 0 min 0 min 0 W/m 29,3 km/h (5 Bft) 95,74 %
18.11.2015 18:00 12,1 C 12,2 C 10,6 C 78 % 0 lf 1012,9 hPa 0,0 l/m 0 min 0 min 0 W/m 33,5 km/h (5 Bft) 93,62 %
18.11.2015 18:02 12,1 C 12,2 C 10,6 C 78 % 0 lf 1012,9 hPa 0,0 l/m 0 min 0 min 0 W/m 27,2 km/h (4 Bft) 91,43 %
18.11.2015 18:04 12,2 C 12,2 C 10,6 C 78 % 0 lf 1013,0 hPa 0,0 l/m 0 min 0 min 0 W/m 35,6 km/h (5 Bft) 87,23 %
18.11.2015 18:06 12,2 C 12,2 C 10,6 C 78 % 0 lf 1013,1 hPa 0,0 l/m 0 min 0 min 0 W/m 29,3 km/h (5 Bft) 95,65 %
18.11.2015 18:08 12,2 C 12,2 C 10,6 C 78 % 0 lf 1013,1 hPa 0,0 l/m 0 min 0 min 0 W/m 23,0 km/h (4 Bft) 95,74 %
18.11.2015 18:10 12,2 C 12,2 C 10,6 C 78 % 0 lf 1013,0 hPa 0,0 l/m 0 min 0 min 0 W/m 23,0 km/h (4 Bft) 94,55 %
18.11.2015 18:12 12,2 C 12,2 C 10,6 C 78 % 0 lf 1013,1 hPa 0,0 l/m 0 min 0 min 0 W/m 37,7 km/h (5 Bft) 96,00 %
18.11.2015 18:14 12,2 C 12,2 C 10,6 C 78 % 0 lf 1013,1 hPa 0,0 l/m 0 min 0 min 0 W/m 29,3 km/h (5 Bft) 95,74 %
18.11.2015 18:16 12,2 C 12,2 C 10,6 C 78 % 0 lf 1012,9 hPa 0,0 l/m 0 min 0 min 0 W/m 29,3 km/h (5 Bft) 93,62 %
18.11.2015 18:18 12,2 C 12,2 C 10,6 C 78 % 0 lf 1012,9 hPa 0,0 l/m 0 min 0 min 0 W/m 31,4 km/h (5 Bft) 97,87 %
18.11.2015 18:20 12,2 C 12,2 C 10,6 C 78 % 0 lf 1013,0 hPa 0,0 l/m 0 min 0 min 0 W/m 20,9 km/h (4 Bft) 93,62 %
18.11.2015 18:22 12,2 C 12,2 C 10,6 C 78 % 0 lf 1013,0 hPa 0,0 l/m 0 min 0 min 0 W/m 25,1 km/h (4 Bft) 88,57 %
18.11.2015 18:24 12,2 C 12,2 C 10,6 C 78 % 0 lf 1012,9 hPa 0,0 l/m 0 min 0 min 0 W/m 27,2 km/h (4 Bft) 96,36 %
18.11.2015 18:26 12,1 C 12,2 C 10,6 C 78 % 0 lf 1012,9 hPa 0,0 l/m 0 min 0 min 0 W/m 33,5 km/h (5 Bft) 97,87 %
18.11.2015 18:28 12,1 C 12,2 C 10,6 C 78 % 0 lf 1012,9 hPa 0,0 l/m 0 min 0 min 0 W/m 35,6 km/h (5 Bft) 97,87 %
18.11.2015 18:30 12,1 C 12,2 C 10,6 C 78 % 0 lf 1013,0 hPa 0,0 l/m 0 min 0 min 0 W/m 33,5 km/h (5 Bft) 97,83 %
18.11.2015 18:32 12,1 C 12,2 C 10,6 C 78 % 0 lf 1012,9 hPa 0,0 l/m 0 min 0 min 0 W/m 33,5 km/h (5 Bft) 95,74 %
18.11.2015 18:34 12,1 C 12,2 C 10,6 C 78 % 0 lf 1012,8 hPa 0,0 l/m 0 min 0 min 0 W/m 25,1 km/h (4 Bft) 100,00 %
18.11.2015 18:36 12,1 C 12,2 C 10,6 C 78 % 0 lf 1012,7 hPa 0,0 l/m 0 min 0 min 0 W/m 31,4 km/h (5 Bft) 97,87 %
18.11.2015 18:38 12,1 C 12,2 C 10,6 C 78 % 0 lf 1012,7 hPa 0,0 l/m 0 min 0 min 0 W/m 33,5 km/h (5 Bft) 97,87 %
18.11.2015 18:40 12,1 C 12,2 C 10,6 C 78 % 0 lf 1012,7 hPa 0,0 l/m 0 min 0 min 0 W/m 39,7 km/h (6 Bft) 100,00 %
18.11.2015 18:42 12,1 C 12,2 C 10,6 C 78 % 0 lf 1012,9 hPa 0,0 l/m 0 min 0 min 0 W/m 27,2 km/h (4 Bft) 95,65 %
18.11.2015 18:44 12,1 C 12,2 C 10,6 C 78 % 0 lf 1012,8 hPa 0,0 l/m 0 min 0 min 0 W/m 25,1 km/h (4 Bft) 98,00 %
18.11.2015 18:46 12,1 C 12,2 C 10,6 C 78 % 0 lf 1012,9 hPa 0,0 l/m 0 min 0 min 0 W/m 29,3 km/h (5 Bft) 95,74 %
18.11.2015 18:48 12,1 C 12,2 C 10,6 C 78 % 0 lf 1012,9 hPa 0,0 l/m 0 min 0 min 0 W/m 33,5 km/h (5 Bft) 97,87 %
18.11.2015 18:50 12,1 C 12,2 C 10,0 C 78 % 0 lf 1012,8 hPa 0,0 l/m 0 min 0 min 0 W/m 29,3 km/h (5 Bft) 95,74 %
18.11.2015 18:52 12,0 C 12,2 C 10,6 C 79 % 0 lf 1012,8 hPa 0,0 l/m 0 min 0 min 0 W/m 33,5 km/h (5 Bft) 95,65 %
18.11.2015 18:54 12,1 C 12,2 C 10,6 C 79 % 0 lf 1012,8 hPa 0,0 l/m 0 min 0 min 0 W/m 29,3 km/h (5 Bft) 93,62 %
18.11.2015 18:56 12,1 C 12,2 C 10,6 C 79 % 0 lf 1012,8 hPa 0,0 l/m 0 min 0 min 0 W/m 31,4 km/h (5 Bft) 97,87 %
18.11.2015 18:58 12,1 C 11,7 C 10,0 C 79 % 0 lf 1012,8 hPa 0,0 l/m 0 min 0 min 0 W/m 33,5 km/h (5 Bft) 91,49 %
18.11.2015 19:00 12,0 C 12,2 C 10,6 C 79 % 0 lf 1012,7 hPa 0,0 l/m 0 min 0 min 0 W/m 37,7 km/h (5 Bft) 95,74 %
18.11.2015 19:02 12,0 C 12,2 C 10,0 C 79 % 0 lf 1012,8 hPa 0,0 l/m 0 min 0 min 0 W/m 39,7 km/h (6 Bft) 93,62 %
18.11.2015 19:04 12,0 C 12,2 C 10,6 C 79 % 0 lf 1012,7 hPa 0,0 l/m 0 min 0 min 0 W/m 35,6 km/h (5 Bft) 93,62 %
18.11.2015 19:06 12,0 C 12,2 C 10,6 C 79 % 0 lf 1012,6 hPa 0,0 l/m 0 min 0 min 0 W/m 27,2 km/h (4 Bft) 94,29 %
18.11.2015 19:08 12,0 C 12,2 C 10,6 C 79 % 0 lf 1012,5 hPa 0,0 l/m 0 min 0 min 0 W/m 31,4 km/h (5 Bft) 95,74 %
18.11.2015 19:10 12,0 C 12,2 C 10,6 C 79 % 0 lf 1012,6 hPa 0,0 l/m 0 min 0 min 0 W/m 35,6 km/h (5 Bft) 93,62 %
18.11.2015 19:12 12,0 C 11,7 C 10,0 C 79 % 0 lf 1012,5 hPa 0,0 l/m 0 min 0 min 0 W/m 23,0 km/h (4 Bft) 94,55 %
18.11.2015 19:14 12,0 C 12,2 C 10,6 C 79 % 0 lf 1012,5 hPa 0,0 l/m 0 min 0 min 0 W/m 33,5 km/h (5 Bft) 95,74 %
18.11.2015 19:16 12,0 C 12,2 C 10,6 C 79 % 0 lf 1012,4 hPa 0,0 l/m 0 min 0 min 0 W/m 33,5 km/h (5 Bft) 95,65 %
18.11.2015 19:18 12,0 C 12,2 C 10,6 C 79 % 0 lf 1012,3 hPa 0,0 l/m 0 min 0 min 0 W/m 35,6 km/h (5 Bft) 95,74 %
18.11.2015 19:20 12,1 C 12,2 C 10,6 C 80 % 0 lf 1012,4 hPa 0,0 l/m 0 min 0 min 0 W/m 43,9 km/h (6 Bft) 97,87 %
18.11.2015 19:22 12,1 C 12,2 C 10,6 C 80 % 0 lf 1012,2 hPa 0,0 l/m 0 min 0 min 0 W/m 41,8 km/h (6 Bft) 97,87 %
18.11.2015 19:24 12,1 C 12,2 C 10,6 C 80 % 0 lf 1012,3 hPa 0,0 l/m 0 min 0 min 0 W/m 33,5 km/h (5 Bft) 97,87 %
18.11.2015 19:26 12,1 C 12,2 C 10,6 C 80 % 0 lf 1012,0 hPa 0,0 l/m 0 min 0 min 0 W/m 33,5 km/h (5 Bft) 95,74 %
18.11.2015 19:28 12,2 C 12,2 C 10,6 C 80 % 0 lf 1012,0 hPa 0,0 l/m 0 min 0 min 0 W/m 20,9 km/h (4 Bft) 97,87 %
18.11.2015 19:30 12,2 C 12,2 C 10,6 C 80 % 0 lf 1011,9 hPa 0,0 l/m 0 min 0 min 0 W/m 27,2 km/h (4 Bft) 97,83 %
18.11.2015 19:32 12,2 C 12,2 C 10,6 C 80 % 0 lf 1011,8 hPa 0,0 l/m 0 min 0 min 0 W/m 35,6 km/h (5 Bft) 97,87 %
18.11.2015 19:34 12,2 C 12,8 C 10,6 C 79 % 0 lf 1011,8 hPa 0,0 l/m 0 min 0 min 0 W/m 43,9 km/h (6 Bft) 98,00 %
18.11.2015 19:36 12,3 C 12,8 C 11,1 C 79 % 0 lf 1011,8 hPa 0,0 l/m 0 min 0 min 0 W/m 33,5 km/h (5 Bft) 97,87 %
18.11.2015 19:38 12,3 C 12,8 C 11,1 C 79 % 0 lf 1011,7 hPa 0,0 l/m 0 min 0 min 0 W/m 33,5 km/h (5 Bft) 93,62 %
18.11.2015 19:40 12,3 C 12,2 C 10,6 C 79 % 0 lf 1011,7 hPa 0,0 l/m 0 min 0 min 0 W/m 23,0 km/h (4 Bft) 95,65 %
18.11.2015 19:42 12,3 C 12,8 C 10,6 C 79 % 0 lf 1011,6 hPa 0,0 l/m 0 min 0 min 0 W/m 37,7 km/h (5 Bft) 97,87 %
18.11.2015 19:44 12,3 C 12,8 C 10,6 C 79 % 0 lf 1011,7 hPa 0,0 l/m 0 min 0 min 0 W/m 31,4 km/h (5 Bft) 95,74 %
18.11.2015 19:46 12,3 C 12,8 C 10,6 C 79 % 0 lf 1011,6 hPa 0,0 l/m 0 min 0 min 0 W/m 31,4 km/h (5 Bft) 97,87 %
18.11.2015 19:48 12,3 C 12,2 C 10,6 C 79 % 0 lf 1011,6 hPa 0,0 l/m 0 min 0 min 0 W/m 23,0 km/h (4 Bft) 97,87 %
18.11.2015 19:50 12,3 C 12,2 C 10,6 C 79 % 0 lf 1011,7 hPa 0,0 l/m 0 min 0 min 0 W/m 25,1 km/h (4 Bft) 95,65 %
18.11.2015 19:52 12,3 C 12,2 C 10,6 C 79 % 0 lf 1011,6 hPa 0,0 l/m 0 min 0 min 0 W/m 29,3 km/h (5 Bft) 95,74 %
18.11.2015 19:54 12,3 C 12,2 C 10,6 C 79 % 0 lf 1011,7 hPa 0,0 l/m 0 min 0 min 0 W/m 41,8 km/h (6 Bft) 100,00 %
18.11.2015 19:56 12,3 C 12,2 C 10,6 C 79 % 0 lf 1011,6 hPa 0,0 l/m 0 min 0 min 0 W/m 48,1 km/h (6 Bft) 95,74 %
18.11.2015 19:58 12,4 C 12,2 C 10,6 C 79 % 0 lf 1011,6 hPa 0,0 l/m 0 min 0 min 0 W/m 37,7 km/h (5 Bft) 97,87 %
18.11.2015 20:00 12,4 C 12,8 C 11,1 C 79 % 0 lf 1011,4 hPa 0,0 l/m 0 min 0 min 0 W/m 41,8 km/h (6 Bft) 97,83 %
18.11.2015 20:02 12,4 C 12,8 C 10,6 C 79 % 0 lf 1011,5 hPa 0,0 l/m 0 min 0 min 0 W/m 33,5 km/h (5 Bft) 95,74 %
18.11.2015 20:04 12,4 C 12,8 C 11,1 C 79 % 0 lf 1011,5 hPa 0,0 l/m 0 min 0 min 0 W/m 46,0 km/h (6 Bft) 97,14 %
18.11.2015 20:06 12,4 C 12,8 C 11,1 C 79 % 0 lf 1011,4 hPa 0,0 l/m 0 min 0 min 0 W/m 46,0 km/h (6 Bft) 97,87 %
18.11.2015 20:08 12,4 C 12,8 C 10,6 C 79 % 0 lf 1011,4 hPa 0,0 l/m 0 min 0 min 0 W/m 43,9 km/h (6 Bft) 97,87 %
18.11.2015 20:10 12,4 C 12,8 C 11,1 C 79 % 0 lf 1011,4 hPa 0,0 l/m 0 min 0 min 0 W/m 43,9 km/h (6 Bft) 95,74 %
18.11.2015 20:12 12,4 C 12,8 C 11,1 C 79 % 0 lf 1011,3 hPa 0,0 l/m 0 min 0 min 0 W/m 46,0 km/h (6 Bft) 95,74 %
18.11.2015 20:14 12,4 C 12,8 C 11,1 C 79 % 0 lf 1011,4 hPa 0,0 l/m 0 min 0 min 0 W/m 52,3 km/h (7 Bft) 98,18 %
18.11.2015 20:16 12,4 C 12,8 C 11,1 C 79 % 0 lf 1011,2 hPa 0,0 l/m 0 min 0 min 0 W/m 46,0 km/h (6 Bft) 93,88 %
18.11.2015 20:18 12,5 C 12,2 C 10,6 C 79 % 0 lf 1011,2 hPa 0,0 l/m 0 min 0 min 0 W/m 25,1 km/h (4 Bft) 95,74 %
18.11.2015 20:20 12,5 C 12,2 C 10,6 C 79 % 0 lf 1011,1 hPa 0,0 l/m 0 min 0 min 0 W/m 35,6 km/h (5 Bft) 95,74 %
18.11.2015 20:22 12,5 C 12,2 C 10,6 C 79 % 0 lf 1011,2 hPa 0,0 l/m 0 min 0 min 0 W/m 41,8 km/h (6 Bft) 91,49 %
18.11.2015 20:24 12,5 C 12,8 C 11,1 C 79 % 0 lf 1011,1 hPa 0,0 l/m 0 min 0 min 0 W/m 48,1 km/h (6 Bft) 95,74 %
18.11.2015 20:26 12,5 C 12,8 C 11,1 C 80 % 0 lf 1011,2 hPa 0,0 l/m 0 min 0 min 0 W/m 60,7 km/h (7 Bft) 93,62 %
18.11.2015 20:28 12,5 C 12,8 C 11,1 C 80 % 0 lf 1011,1 hPa 0,0 l/m 0 min 0 min 0 W/m 35,6 km/h (5 Bft) 93,62 %
18.11.2015 20:30 12,6 C 12,8 C 11,1 C 80 % 0 lf 1011,1 hPa 0,0 l/m 0 min 0 min 0 W/m 35,6 km/h (5 Bft) 89,36 %
18.11.2015 20:32 12,6 C 12,8 C 11,1 C 80 % 0 lf 1011,1 hPa 0,0 l/m 0 min 0 min 0 W/m 41,8 km/h (6 Bft) 95,74 %
18.11.2015 20:34 12,6 C 12,8 C 11,1 C 80 % 0 lf 1011,1 hPa 0,0 l/m 0 min 0 min 0 W/m 48,1 km/h (6 Bft) 93,48 %
18.11.2015 20:36 12,6 C 12,8 C 11,1 C 80 % 0 lf 1011,2 hPa 0,0 l/m 0 min 0 min 0 W/m 56,5 km/h (7 Bft) 91,49 %
18.11.2015 20:38 12,6 C 12,8 C 11,1 C 80 % 0 lf 1011,2 hPa 0,0 l/m 0 min 0 min 0 W/m 41,8 km/h (6 Bft) 91,43 %
18.11.2015 20:40 12,7 C 12,8 C 11,1 C 80 % 0 lf 1011,1 hPa 0,0 l/m 0 min 0 min 0 W/m 37,7 km/h (5 Bft) 93,62 %
18.11.2015 20:42 12,7 C 12,8 C 11,7 C 80 % 0 lf 1011,1 hPa 0,0 l/m 0 min 0 min 0 W/m 54,4 km/h (7 Bft) 93,62 %
18.11.2015 20:44 12,7 C 13,3 C 11,7 C 80 % 0 lf 1011,0 hPa 0,0 l/m 0 min 0 min 0 W/m 39,7 km/h (6 Bft) 95,74 %
18.11.2015 20:46 12,8 C 13,3 C 11,7 C 80 % 0 lf 1010,9 hPa 0,0 l/m 0 min 0 min 0 W/m 43,9 km/h (6 Bft) 93,62 %
18.11.2015 20:48 12,8 C 13,3 C 11,7 C 80 % 0 lf 1010,9 hPa 0,0 l/m 0 min 0 min 0 W/m 33,5 km/h (5 Bft) 91,49 %
18.11.2015 20:50 12,8 C 13,3 C 11,7 C 80 % 0 lf 1010,8 hPa 0,0 l/m 0 min 0 min 0 W/m 37,7 km/h (5 Bft) 91,30 %
18.11.2015 20:52 12,8 C 13,3 C 11,7 C 80 % 0 lf 1010,8 hPa 0,0 l/m 0 min 0 min 0 W/m 37,7 km/h (5 Bft) 93,62 %
18.11.2015 20:54 12,9 C 13,3 C 11,7 C 80 % 0 lf 1010,9 hPa 0,0 l/m 0 min 0 min 0 W/m 39,7 km/h (6 Bft) 93,62 %
18.11.2015 20:56 12,9 C 13,3 C 11,7 C 79 % 0 lf 1010,8 hPa 0,0 l/m 0 min 0 min 0 W/m 48,1 km/h (6 Bft) 93,62 %
18.11.2015 20:58 13,0 C 13,3 C 11,7 C 79 % 0 lf 1010,9 hPa 0,0 l/m 0 min 0 min 0 W/m 39,7 km/h (6 Bft) 93,62 %
18.11.2015 21:00 13,1 C 13,3 C 11,7 C 79 % 0 lf 1010,8 hPa 0,0 l/m 0 min 0 min 0 W/m 33,5 km/h (5 Bft) 86,96 %
18.11.2015 21:02 13,1 C 13,3 C 11,7 C 79 % 0 lf 1010,7 hPa 0,0 l/m 0 min 0 min 0 W/m 39,7 km/h (6 Bft) 92,86 %
18.11.2015 21:04 13,1 C 13,3 C 11,7 C 79 % 0 lf 1010,8 hPa 0,0 l/m 0 min 0 min 0 W/m 48,1 km/h (6 Bft) 93,48 %
18.11.2015 21:06 13,1 C 13,3 C 11,7 C 79 % 0 lf 1010,8 hPa 0,0 l/m 0 min 0 min 0 W/m 41,8 km/h (6 Bft) 91,49 %
18.11.2015 21:08 13,2 C 13,3 C 11,7 C 79 % 0 lf 1010,7 hPa 0,0 l/m 0 min 0 min 0 W/m 27,2 km/h (4 Bft) 96,00 %
18.11.2015 21:10 13,2 C 13,3 C 11,7 C 79 % 0 lf 1010,8 hPa 0,0 l/m 0 min 0 min 0 W/m 46,0 km/h (6 Bft) 93,62 %
18.11.2015 21:12 13,2 C 13,3 C 11,7 C 79 % 0 lf 1010,8 hPa 0,0 l/m 0 min 0 min 0 W/m 33,5 km/h (5 Bft) 93,62 %
18.11.2015 21:14 13,3 C 13,9 C 11,7 C 79 % 0 lf 1010,3 hPa 0,0 l/m 0 min 0 min 0 W/m 56,5 km/h (7 Bft) 95,65 %
18.11.2015 21:16 13,3 C 13,9 C 12,2 C 79 % 0 lf 1010,5 hPa 0,0 l/m 0 min 0 min 0 W/m 33,5 km/h (5 Bft) 93,62 %
18.11.2015 21:18 13,3 C 13,9 C 12,2 C 79 % 0 lf 1010,4 hPa 0,0 l/m 0 min 0 min 0 W/m 46,0 km/h (6 Bft) 97,87 %
18.11.2015 21:20 13,4 C 13,9 C 12,2 C 79 % 0 lf 1010,4 hPa 0,0 l/m 0 min 0 min 0 W/m 43,9 km/h (6 Bft) 97,87 %
18.11.2015 21:22 13,4 C 13,9 C 12,2 C 79 % 0 lf 1010,5 hPa 0,0 l/m 0 min 0 min 0 W/m 48,1 km/h (6 Bft) 97,87 %
18.11.2015 21:24 13,5 C 13,9 C 12,2 C 79 % 0 lf 1010,4 hPa 0,0 l/m 0 min 0 min 0 W/m 50,2 km/h (7 Bft) 100,00 %
18.11.2015 21:26 13,6 C 13,9 C 12,2 C 79 % 0 lf 1010,3 hPa 0,0 l/m 0 min 0 min 0 W/m 48,1 km/h (6 Bft) 93,62 %
18.11.2015 21:28 13,6 C 13,9 C 12,2 C 79 % 0 lf 1010,4 hPa 0,0 l/m 0 min 0 min 0 W/m 54,4 km/h (7 Bft) 97,87 %
18.11.2015 21:30 13,7 C 13,9 C 12,2 C 79 % 0 lf 1010,6 hPa 0,0 l/m 0 min 0 min 0 W/m 46,0 km/h (6 Bft) 97,87 %
18.11.2015 21:32 13,7 C 13,9 C 12,2 C 79 % 0 lf 1010,5 hPa 0,0 l/m 0 min 2 min 0 W/m 41,8 km/h (6 Bft) 97,87 %
18.11.2015 21:34 13,8 C 13,9 C 12,2 C 79 % 0 lf 1010,5 hPa 0,0 l/m 0 min 2 min 0 W/m 43,9 km/h (6 Bft) 100,00 %
18.11.2015 21:36 13,8 C 13,9 C 12,2 C 79 % 0 lf 1010,4 hPa 0,0 l/m 0 min 0 min 0 W/m 46,0 km/h (6 Bft) 95,65 %
18.11.2015 21:38 13,8 C 13,9 C 12,2 C 79 % 0 lf 1010,4 hPa 0,0 l/m 0 min 0 min 0 W/m 37,7 km/h (5 Bft) 100,00 %
18.11.2015 21:40 13,9 C 13,9 C 12,2 C 79 % 0 lf 1010,3 hPa 0,0 l/m 0 min 0 min 0 W/m 43,9 km/h (6 Bft) 100,00 %
18.11.2015 21:42 13,9 C 13,9 C 12,2 C 79 % 0 lf 1010,3 hPa 0,0 l/m 0 min 0 min 0 W/m 41,8 km/h (6 Bft) 100,00 %
18.11.2015 21:44 13,9 C 13,9 C 12,2 C 79 % 0 lf 1010,3 hPa 0,0 l/m 0 min 0 min 0 W/m 43,9 km/h (6 Bft) 97,14 %
18.11.2015 21:46 13,9 C 13,9 C 12,2 C 79 % 0 lf 1010,4 hPa 0,0 l/m 0 min 0 min 0 W/m 54,4 km/h (7 Bft) 100,00 %
18.11.2015 21:48 13,9 C 13,9 C 12,2 C 79 % 0 lf 1010,4 hPa 0,0 l/m 0 min 2 min 0 W/m 50,2 km/h (7 Bft) 100,00 %
18.11.2015 21:50 13,9 C 14,4 C 12,2 C 79 % 0 lf 1010,3 hPa 0,0 l/m 0 min 2 min 0 W/m 56,5 km/h (7 Bft) 100,00 %
18.11.2015 21:52 14,0 C 13,9 C 12,2 C 79 % 12 lf 1010,4 hPa 0,0 l/m 0 min 0 min 0 W/m 43,9 km/h (6 Bft) 97,87 %
18.11.2015 21:54 14,1 C 13,3 C 12,2 C 80 % 12 lf 1010,4 hPa 0,0 l/m 0 min 2 min 0 W/m 50,2 km/h (7 Bft) 100,00 %
18.11.2015 21:56 14,1 C 12,2 C 11,1 C 81 % 15 lf 1010,4 hPa 0,0 l/m 0 min 2 min 0 W/m 41,8 km/h (6 Bft) 97,87 %
18.11.2015 21:58 14,0 C 12,2 C 11,1 C 81 % 15 lf 1010,5 hPa 0,0 l/m 0 min 2 min 0 W/m 50,2 km/h (7 Bft) 100,00 %
18.11.2015 22:00 13,9 C 12,2 C 11,1 C 82 % 15 lf 1010,6 hPa 0,0 l/m 0 min 2 min 0 W/m 54,4 km/h (7 Bft) 93,48 %
18.11.2015 22:02 13,9 C 12,2 C 11,1 C 82 % 15 lf 1010,3 hPa 0,0 l/m 0 min 2 min 0 W/m 43,9 km/h (6 Bft) 100,00 %
18.11.2015 22:04 13,8 C 12,8 C 11,1 C 83 % 15 lf 1010,6 hPa 0,0 l/m 0 min 2 min 0 W/m 54,4 km/h (7 Bft) 100,00 %
18.11.2015 22:06 13,7 C 12,8 C 11,1 C 83 % 15 lf 1010,5 hPa 0,0 l/m 0 min 2 min 0 W/m 56,5 km/h (7 Bft) 100,00 %
18.11.2015 22:08 13,6 C 12,8 C 11,1 C 84 % 15 lf 1010,8 hPa 0,0 l/m 0 min 2 min 0 W/m 54,4 km/h (7 Bft) 100,00 %
18.11.2015 22:10 13,6 C 12,8 C 11,1 C 84 % 15 lf 1010,5 hPa 0,0 l/m 0 min 2 min 0 W/m 52,3 km/h (7 Bft) 97,87 %
18.11.2015 22:12 13,5 C 12,8 C 11,1 C 85 % 15 lf 1010,3 hPa 0,0 l/m 0 min 2 min 0 W/m 54,4 km/h (7 Bft) 97,83 %
18.11.2015 22:14 13,4 C 12,8 C 11,1 C 85 % 15 lf 1010,2 hPa 0,0 l/m 0 min 2 min 0 W/m 50,2 km/h (7 Bft) 95,74 %
18.11.2015 22:16 13,4 C 12,8 C 11,1 C 85 % 14 lf 1010,2 hPa 0,0 l/m 0 min 2 min 0 W/m 39,7 km/h (6 Bft) 100,00 %
18.11.2015 22:18 13,3 C 12,8 C 11,1 C 86 % 3 lf 1010,1 hPa 0,0 l/m 0 min 2 min 0 W/m 50,2 km/h (7 Bft) 100,00 %
18.11.2015 22:20 13,3 C 12,8 C 11,1 C 86 % 0 lf 1010,3 hPa 0,0 l/m 0 min 2 min 0 W/m 39,7 km/h (6 Bft) 97,87 %
18.11.2015 22:22 13,2 C 12,8 C 11,1 C 86 % 0 lf 1010,3 hPa 0,0 l/m 0 min 2 min 0 W/m 50,2 km/h (7 Bft) 97,87 %
18.11.2015 22:24 13,2 C 12,8 C 11,7 C 86 % 0 lf 1010,3 hPa 0,0 l/m 0 min 2 min 0 W/m 43,9 km/h (6 Bft) 100,00 %
18.11.2015 22:26 13,2 C 13,3 C 11,7 C 86 % 0 lf 1010,3 hPa 0,0 l/m 0 min 2 min 0 W/m 39,7 km/h (6 Bft) 95,74 %
18.11.2015 22:28 13,2 C 13,3 C 11,7 C 86 % 0 lf 1010,3 hPa 0,0 l/m 0 min 2 min 0 W/m 37,7 km/h (5 Bft) 97,87 %
18.11.2015 22:30 13,2 C 13,3 C 11,7 C 86 % 0 lf 1010,0 hPa 0,0 l/m 0 min 2 min 0 W/m 41,8 km/h (6 Bft) 95,74 %
18.11.2015 22:32 13,2 C 13,3 C 11,7 C 86 % 0 lf 1009,8 hPa 0,0 l/m 0 min 2 min 0 W/m 37,7 km/h (5 Bft) 100,00 %
18.11.2015 22:34 13,2 C 13,3 C 11,7 C 86 % 0 lf 1009,8 hPa 0,0 l/m 0 min 2 min 0 W/m 56,5 km/h (7 Bft) 93,88 %
18.11.2015 22:36 13,2 C 13,3 C 11,7 C 86 % 0 lf 1009,9 hPa 0,0 l/m 0 min 2 min 0 W/m 37,7 km/h (5 Bft) 95,74 %
18.11.2015 22:38 13,2 C 13,3 C 11,7 C 86 % 0 lf 1009,7 hPa 0,0 l/m 0 min 0 min 0 W/m 35,6 km/h (5 Bft) 93,75 %
18.11.2015 22:40 13,3 C 13,3 C 11,7 C 86 % 0 lf 1009,6 hPa 0,0 l/m 0 min 0 min 0 W/m 43,9 km/h (6 Bft) 93,62 %
18.11.2015 22:42 13,3 C 13,3 C 11,7 C 86 % 2 lf 1009,8 hPa 0,0 l/m 0 min 0 min 0 W/m 41,8 km/h (6 Bft) 95,74 %
18.11.2015 22:44 13,3 C 13,3 C 11,7 C 85 % 1 lf 1009,9 hPa 0,0 l/m 0 min 2 min 0 W/m 56,5 km/h (7 Bft) 94,29 %
18.11.2015 22:46 13,4 C 13,9 C 11,7 C 85 % 0 lf 1010,1 hPa 0,0 l/m 0 min 0 min 0 W/m 58,6 km/h (7 Bft) 95,65 %
18.11.2015 22:48 13,4 C 13,9 C 12,2 C 85 % 0 lf 1010,3 hPa 0,0 l/m 0 min 2 min 0 W/m 52,3 km/h (7 Bft) 95,74 %
18.11.2015 22:50 13,5 C 13,9 C 12,2 C 84 % 0 lf 1010,1 hPa 0,0 l/m 0 min 0 min 0 W/m 48,1 km/h (6 Bft) 93,62 %
18.11.2015 22:52 13,6 C 13,9 C 12,2 C 84 % 0 lf 1010,3 hPa 0,0 l/m 0 min 0 min 0 W/m 39,7 km/h (6 Bft) 87,23 %
18.11.2015 22:54 13,6 C 13,9 C 12,2 C 84 % 0 lf 1010,3 hPa 0,0 l/m 0 min 0 min 0 W/m 50,2 km/h (7 Bft) 92,73 %
18.11.2015 22:56 13,7 C 13,9 C 12,2 C 84 % 0 lf 1010,2 hPa 0,0 l/m 0 min 0 min 0 W/m 43,9 km/h (6 Bft) 95,74 %
18.11.2015 22:58 13,7 C 13,9 C 12,2 C 83 % 0 lf 1010,0 hPa 0,0 l/m 0 min 0 min 0 W/m 43,9 km/h (6 Bft) 93,48 %
18.11.2015 23:00 13,7 C 13,9 C 12,2 C 84 % 0 lf 1010,0 hPa 0,0 l/m 0 min 0 min 0 W/m 35,6 km/h (5 Bft) 95,74 %
18.11.2015 23:02 13,8 C 13,9 C 12,2 C 83 % 0 lf 1009,9 hPa 0,0 l/m 0 min 0 min 0 W/m 46,0 km/h (6 Bft) 92,00 %
18.11.2015 23:04 13,8 C 13,9 C 12,2 C 83 % 1 lf 1009,8 hPa 0,0 l/m 0 min 2 min 0 W/m 48,1 km/h (6 Bft) 95,74 %
18.11.2015 23:06 13,8 C 13,9 C 12,2 C 83 % 0 lf 1010,1 hPa 0,0 l/m 0 min 0 min 0 W/m 41,8 km/h (6 Bft) 93,62 %
18.11.2015 23:08 13,8 C 13,9 C 12,2 C 83 % 0 lf 1010,0 hPa 0,0 l/m 0 min 0 min 0 W/m 48,1 km/h (6 Bft) 93,62 %
18.11.2015 23:10 13,8 C 13,9 C 12,2 C 83 % 0 lf 1010,1 hPa 0,0 l/m 0 min 0 min 0 W/m 41,8 km/h (6 Bft) 88,57 %
18.11.2015 23:12 13,8 C 13,9 C 12,2 C 83 % 0 lf 1010,3 hPa 0,0 l/m 0 min 0 min 0 W/m 52,3 km/h (7 Bft) 94,55 %
18.11.2015 23:14 13,9 C 13,9 C 12,2 C 83 % 0 lf 1010,2 hPa 0,0 l/m 0 min 0 min 0 W/m 56,5 km/h (7 Bft) 91,49 %
18.11.2015 23:16 13,9 C 13,9 C 12,2 C 83 % 0 lf 1010,3 hPa 0,0 l/m 0 min 0 min 0 W/m 43,9 km/h (6 Bft) 95,74 %
18.11.2015 23:18 13,9 C 13,9 C 12,2 C 83 % 0 lf 1010,3 hPa 0,0 l/m 0 min 0 min 0 W/m 46,0 km/h (6 Bft) 95,74 %
18.11.2015 23:20 13,9 C 13,9 C 12,2 C 83 % 0 lf 1010,4 hPa 0,0 l/m 0 min 0 min 0 W/m 43,9 km/h (6 Bft) 89,36 %
18.11.2015 23:22 13,9 C 13,9 C 12,2 C 83 % 14 lf 1010,3 hPa 0,0 l/m 0 min 2 min 0 W/m 50,2 km/h (7 Bft) 93,48 %
18.11.2015 23:24 13,9 C 13,3 C 11,7 C 83 % 15 lf 1010,3 hPa 0,0 l/m 0 min 2 min 0 W/m 43,9 km/h (6 Bft) 92,00 %
18.11.2015 23:26 13,9 C 13,3 C 11,7 C 83 % 15 lf 1010,2 hPa 0,0 l/m 0 min 2 min 0 W/m 41,8 km/h (6 Bft) 89,58 %
18.11.2015 23:28 13,9 C 13,3 C 11,7 C 83 % 15 lf 1010,2 hPa 0,0 l/m 0 min 2 min 0 W/m 46,0 km/h (6 Bft) 91,43 %
18.11.2015 23:30 13,8 C 13,3 C 11,7 C 83 % 14 lf 1010,3 hPa 0,0 l/m 0 min 2 min 0 W/m 37,7 km/h (5 Bft) 94,55 %
18.11.2015 23:32 13,8 C 13,3 C 11,7 C 83 % 9 lf 1010,3 hPa 0,0 l/m 0 min 2 min 0 W/m 39,7 km/h (6 Bft) 93,62 %
18.11.2015 23:34 13,8 C 13,3 C 11,7 C 82 % 2 lf 1010,2 hPa 0,0 l/m 0 min 2 min 0 W/m 33,5 km/h (5 Bft) 93,48 %
18.11.2015 23:36 13,7 C 13,3 C 11,7 C 82 % 2 lf 1010,3 hPa 0,0 l/m 0 min 2 min 0 W/m 37,7 km/h (5 Bft) 93,62 %
18.11.2015 23:38 13,7 C 13,3 C 11,7 C 82 % 0 lf 1010,3 hPa 0,0 l/m 0 min 2 min 0 W/m 46,0 km/h (6 Bft) 93,62 %
18.11.2015 23:40 13,7 C 13,9 C 11,7 C 81 % 0 lf 1010,5 hPa 0,0 l/m 0 min 2 min 0 W/m 52,3 km/h (7 Bft) 93,62 %
18.11.2015 23:42 13,7 C 13,9 C 11,7 C 80 % 11 lf 1010,4 hPa 0,0 l/m 0 min 2 min 0 W/m 48,1 km/h (6 Bft) 89,36 %
18.11.2015 23:44 13,7 C 13,9 C 11,7 C 80 % 0 lf 1010,4 hPa 0,0 l/m 0 min 2 min 0 W/m 35,6 km/h (5 Bft) 89,80 %
18.11.2015 23:46 13,7 C 13,9 C 11,7 C 80 % 0 lf 1010,6 hPa 0,0 l/m 0 min 2 min 0 W/m 41,8 km/h (6 Bft) 95,74 %
18.11.2015 23:48 13,7 C 13,9 C 11,7 C 79 % 0 lf 1010,5 hPa 0,0 l/m 0 min 2 min 0 W/m 37,7 km/h (5 Bft) 93,62 %
18.11.2015 23:50 13,7 C 13,9 C 11,7 C 79 % 0 lf 1010,5 hPa 0,0 l/m 0 min 0 min 0 W/m 41,8 km/h (6 Bft) 91,49 %
18.11.2015 23:52 13,7 C 13,9 C 12,2 C 78 % 0 lf 1010,5 hPa 0,0 l/m 0 min 0 min 0 W/m 46,0 km/h (6 Bft) 95,74 %
18.11.2015 23:54 13,7 C 13,9 C 12,2 C 78 % 0 lf 1010,6 hPa 0,0 l/m 0 min 0 min 0 W/m 39,7 km/h (6 Bft) 93,62 %
18.11.2015 23:56 13,7 C 13,9 C 12,2 C 77 % 0 lf 1010,8 hPa 0,0 l/m 0 min 0 min 0 W/m 31,4 km/h (5 Bft) 93,62 %
18.11.2015 23:58 13,7 C 13,9 C 12,2 C 77 % 0 lf 1010,7 hPa 0,0 l/m 0 min 0 min 0 W/m 43,9 km/h (6 Bft) 89,36 %
_ Min-Zeit 18:52 18:58 18:50 05:24 00:00 00:12 - - - - 09:18 05:52
Minimum _ 12,0 C 11,7 C 10,0 C 71 % 0 lf 1003,6 hPa - - - - 12,6 km/h (3 Bft) 84,09 %
_ Max-Zeit 00:00 10:58 00:00 22:18 11:56 10:44 00:00 09:34 01:10 10:52 01:04 00:12
Maximum _ 15,3 C 18,9 C 13,3 C 86 % 15 lf 1016,2 hPa 0,0 l/m 2 min 2 min 329 W/m 79,5 km/h
W-SW (9 Bft)
100,00 %
Durchschnitt _ 13,5 C 13,8 C 12,0 C 77 % 1 lf 1011,6 hPa #0,0 l/m #2:08 h #1:58 h 92 W/m 39,1 km/h (6 Bft) 95,82 %
© 2015 W. Hausmann